KJ6MC Weather Reports


time (UTC)temp
C
wind
direction
speed
KPH
gust
KPH
rain 1hr
cm
rain 24hr
cm
rain mn
cm
humidity
%
barometer
mb
20211017160757 14 194 3.2 9.7 0.00 0.00 0.00 52 1012.4
20211017160654 13 207 3.2 9.7 0.00 0.00 0.00 52 1012.5
20211017160551 13 217 3.2 9.7 0.00 0.00 0.00 52 1012.5
20211017160452 13 256 3.2 9.7 0.00 0.00 0.00 52 1012.5
20211017160352 13 224 3.2 9.7 0.00 0.00 0.00 52 1012.4
20211017160328 13 219 3.2 9.7 0.00 0.00 0.00 52 1012.3
20211017160250 13 229 3.2 9.7 0.00 0.00 0.00 52 1012.3
20211017160148 13 206 3.2 6.4 0.00 0.00 0.00 53 1012.2
20211017160045 13 240 1.6 6.4 0.00 0.00 0.00 53 1012.2
20211017155945 13 230 1.6 6.4 0.00 0.00 0.00 53 1012.2
20211017155844 13 222 1.6 6.4 0.00 0.00 0.00 54 1012.1
20211017155822 13 233 1.6 6.4 0.00 0.00 0.00 54 1012.1
20211017155743 13 211 1.6 6.4 0.00 0.00 0.00 54 1012.0
20211017155643 13 194 1.6 6.4 0.00 0.00 0.00 54 1011.9
20211017155538 13 146 0.0 6.4 0.00 0.00 0.00 55 1011.9
20211017155437 13 127 0.0 3.2 0.00 0.00 0.00 55 1011.8
20211017155338 13 121 0.0 3.2 0.00 0.00 0.00 56 1011.8
20211017155317 13 137 0.0 3.2 0.00 0.00 0.00 56 1011.8
20211017155237 13 138 0.0 3.2 0.00 0.00 0.00 55 1011.7
20211017155137 13 125 0.0 3.2 0.00 0.00 0.00 56 1011.8
20211017155035 13 134 1.6 4.8 0.00 0.00 0.00 55 1011.7
20211017154936 13 134 1.6 4.8 0.00 0.00 0.00 56 1011.7
20211017154810 13 145 1.6 4.8 0.00 0.00 0.00 56 1011.7
20211017154733 13 145 1.6 4.8 0.00 0.00 0.00 56 1011.7
20211017154631 13 145 1.6 4.8 0.00 0.00 0.00 55 1011.7
20211017154527 13 146 1.6 4.8 0.00 0.00 0.00 56 1011.7
20211017154427 13 110 1.6 4.8 0.00 0.00 0.00 56 1011.6
20211017154326 13 124 1.6 4.8 0.00 0.00 0.00 56 1011.5
20211017154304 13 121 1.6 4.8 0.00 0.00 0.00 56 1011.5
20211017154226 13 84 1.6 4.8 0.00 0.00 0.00 55 1011.6
20211017154124 12 84 1.6 4.8 0.00 0.00 0.00 56 1011.5
20211017154024 12 105 1.6 4.8 0.00 0.00 0.00 56 1011.5
20211017153922 12 84 1.6 4.8 0.00 0.00 0.00 57 1011.6
20211017153822 12 94 1.6 4.8 0.00 0.00 0.00 58 1011.6
20211017153758 12 91 1.6 4.8 0.00 0.00 0.00 58 1011.6
20211017153725 12 96 1.6 3.2 0.00 0.00 0.00 59 1011.6
20211017153618 12 96 0.0 3.2 0.00 0.00 0.00 59 1011.7
20211017153515 12 120 0.0 3.2 0.00 0.00 0.00 58 1011.8
20211017153413 12 120 0.0 3.2 0.00 0.00 0.00 59 1011.7
20211017153312 12 105 0.0 3.2 0.00 0.00 0.00 58 1011.7
20211017153251 12 94 0.0 3.2 0.00 0.00 0.00 58 1011.7
20211017153211 12 94 0.0 3.2 0.00 0.00 0.00 60 1011.7
20211017153111 12 77 0.0 3.2 0.00 0.00 0.00 60 1011.8
20211017153009 12 116 0.0 1.6 0.00 0.00 0.00 59 1011.8
20211017152910 12 136 0.0 1.6 0.00 0.00 0.00 60 1011.9
20211017152810 12 146 0.0 1.6 0.00 0.00 0.00 60 1012.0
20211017152744 12 145 0.0 1.6 0.00 0.00 0.00 60 1012.0
20211017152707 12 145 0.0 1.6 0.00 0.00 0.00 60 1012.0
20211017152605 12 129 0.0 1.6 0.00 0.00 0.00 60 1011.9
20211017152504 12 130 0.0 1.6 0.00 0.00 0.00 60 1011.8
20211017152404 12 131 0.0 1.6 0.00 0.00 0.00 60 1011.9
20211017152305 12 100 0.0 1.6 0.00 0.00 0.00 60 1012.0
20211017152238 12 102 0.0 1.6 0.00 0.00 0.00 60 1012.0
20211017152204 12 224 0.0 1.6 0.00 0.00 0.00 60 1012.0
20211017152059 12 224 0.0 1.6 0.00 0.00 0.00 60 1012.0
20211017151954 12 224 0.0 3.2 0.00 0.00 0.00 59 1012.0
20211017151854 12 224 0.0 4.8 0.00 0.00 0.00 59 1011.9
20211017151739 12 224 0.0 4.8 0.00 0.00 0.00 61 1011.9
20211017151651 12 224 0.0 4.8 0.00 0.00 0.00 61 1011.9
20211017151551 12 224 0.0 4.8 0.00 0.00 0.00 61 1011.9
20211017151452 11 224 0.0 4.8 0.00 0.00 0.00 61 1011.9
20211017151350 11 224 0.0 4.8 0.00 0.00 0.00 60 1011.9
20211017151249 11 223 0.0 4.8 0.00 0.00 0.00 60 1011.9
20211017151240 11 224 0.0 4.8 0.00 0.00 0.00 60 1011.8
20211017151148 11 224 0.0 4.8 0.00 0.00 0.00 60 1011.8
20211017151047 11 224 0.0 4.8 0.00 0.00 0.00 60 1011.8
20211017150939 11 233 0.0 4.8 0.00 0.00 0.00 61 1011.7
20211017150839 11 130 0.0 0.0 0.00 0.00 0.00 65 1011.7
20211017150739 11 130 0.0 0.0 0.00 0.00 0.00 66 1011.6
20211017150639 10 129 0.0 0.0 0.00 0.00 0.00 67 1011.6
20211017150540 10 129 0.0 0.0 0.00 0.00 0.00 69 1011.7
20211017150436 10 129 0.0 0.0 0.00 0.00 0.00 69 1011.7
20211017150335 10 129 0.0 0.0 0.00 0.00 0.00 69 1011.7
20211017150237 10 130 0.0 0.0 0.00 0.00 0.00 69 1011.6
20211017150136 10 130 0.0 0.0 0.00 0.00 0.00 70 1011.6
20211017150032 9 130 0.0 0.0 0.00 0.00 0.00 69 1011.5
20211017145929 9 130 0.0 0.0 0.00 0.00 0.00 69 1011.5
20211017145829 9 130 0.0 0.0 0.00 0.00 0.00 71 1011.5
20211017145739 9 130 0.0 0.0 0.00 0.00 0.00 71 1011.5
20211017145729 9 130 0.0 0.0 0.00 0.00 0.00 70 1011.5
20211017145629 9 129 0.0 0.0 0.00 0.00 0.00 70 1011.5
20211017145527 8 130 0.0 0.0 0.00 0.00 0.00 69 1011.5
20211017145422 8 129 0.0 0.0 0.00 0.00 0.00 70 1011.5
20211017145322 8 130 0.0 0.0 0.00 0.00 0.00 70 1011.5
20211017145221 8 113 0.0 0.0 0.00 0.00 0.00 70 1011.4
20211017145122 8 111 0.0 0.0 0.00 0.00 0.00 70 1011.3
20211017145021 8 111 0.0 0.0 0.00 0.00 0.00 70 1011.2
20211017144919 8 112 0.0 0.0 0.00 0.00 0.00 69 1011.2
20211017144817 8 111 0.0 0.0 0.00 0.00 0.00 69 1011.1
20211017144715 8 112 0.0 0.0 0.00 0.00 0.00 69 1011.1
20211017144616 8 111 0.0 0.0 0.00 0.00 0.00 69 1011.1
20211017144517 8 110 0.0 0.0 0.00 0.00 0.00 69 1011.1
20211017144414 8 112 0.0 0.0 0.00 0.00 0.00 69 1011.1
20211017144313 8 111 0.0 0.0 0.00 0.00 0.00 69 1011.1
20211017144238 8 110 0.0 0.0 0.00 0.00 0.00 69 1011.1
20211017144211 8 110 0.0 0.0 0.00 0.00 0.00 68 1011.1
20211017144112 8 112 0.0 0.0 0.00 0.00 0.00 67 1011.1
20211017144009 8 112 0.0 0.0 0.00 0.00 0.00 67 1011.1
20211017143904 8 112 0.0 1.6 0.00 0.00 0.00 67 1011.1
20211017143739 8 111 0.0 1.6 0.00 0.00 0.00 67 1011.1
20211017143703 8 112 0.0 1.6 0.00 0.00 0.00 67 1011.1
20211017143604 8 110 0.0 3.2 0.00 0.00 0.00 67 1011.1
20211017143505 8 111 0.0 3.2 0.00 0.00 0.00 67 1011.1
20211017143404 8 112 0.0 3.2 0.00 0.00 0.00 68 1011.1
20211017143303 8 112 0.0 3.2 0.00 0.00 0.00 68 1011.1
20211017143239 8 111 0.0 3.2 0.00 0.00 0.00 68 1011.1
20211017143159 8 112 0.0 3.2 0.00 0.00 0.00 68 1011.1
20211017143101 8 112 1.6 3.2 0.00 0.00 0.00 67 1011.0
20211017142958 8 111 1.6 3.2 0.00 0.00 0.00 68 1011.1
20211017142855 8 112 1.6 3.2 0.00 0.00 0.00 68 1011.1
20211017142755 8 116 1.6 3.2 0.00 0.00 0.00 68 1011.1
20211017142736 8 115 0.0 3.2 0.00 0.00 0.00 69 1011.1
20211017142655 8 108 0.0 3.2 0.00 0.00 0.00 69 1011.1
20211017142555 8 109 0.0 3.2 0.00 0.00 0.00 70 1011.1
20211017142451 8 108 0.0 1.6 0.00 0.00 0.00 70 1011.0
20211017142348 8 109 0.0 1.6 0.00 0.00 0.00 71 1011.1
20211017142236 8 109 0.0 1.6 0.00 0.00 0.00 71 1011.1
20211017142145 8 109 0.0 1.6 0.00 0.00 0.00 72 1011.2
20211017142046 8 109 0.0 0.0 0.00 0.00 0.00 72 1011.2
20211017141945 8 109 0.0 0.0 0.00 0.00 0.00 72 1011.2
20211017141843 8 109 0.0 0.0 0.00 0.00 0.00 72 1011.2
20211017141736 8 109 0.0 1.6 0.00 0.00 0.00 71 1011.3
20211017141643 8 109 0.0 1.6 0.00 0.00 0.00 70 1011.2
20211017141543 8 109 0.0 1.6 0.00 0.00 0.00 70 1011.2
20211017141439 8 109 0.0 1.6 0.00 0.00 0.00 70 1011.2
20211017141337 8 108 0.0 1.6 0.00 0.00 0.00 70 1011.2
20211017141234 8 109 0.0 1.6 0.00 0.00 0.00 69 1011.2
20211017141134 8 109 0.0 1.6 0.00 0.00 0.00 69 1011.2
20211017141034 8 109 0.0 1.6 0.00 0.00 0.00 70 1011.2
20211017140933 8 109 0.0 1.6 0.00 0.00 0.00 70 1011.2
20211017140833 8 109 0.0 1.6 0.00 0.00 0.00 71 1011.2
20211017140732 8 109 0.0 0.0 0.00 0.00 0.00 71 1011.2
20211017140632 8 109 0.0 0.0 0.00 0.00 0.00 71 1011.2
20211017140529 8 109 0.0 0.0 0.00 0.00 0.00 69 1011.2
20211017140427 8 109 0.0 0.0 0.00 0.00 0.00 69 1011.3
20211017140323 8 109 0.0 0.0 0.00 0.00 0.00 70 1011.3
20211017140222 8 109 0.0 0.0 0.00 0.00 0.00 70 1011.3
20211017140121 8 109 0.0 0.0 0.00 0.00 0.00 71 1011.3
20211017140029 8 109 0.0 0.0 0.00 0.00 0.00 71 1011.3
20211017135919 8 109 0.0 0.0 0.00 0.00 0.00 71 1011.3
20211017135814 8 108 0.0 0.0 0.00 0.00 0.00 71 1011.3
20211017135714 8 109 0.0 0.0 0.00 0.00 0.00 70 1011.3
20211017135615 8 109 0.0 0.0 0.00 0.00 0.00 70 1011.3
20211017135513 8 109 0.0 0.0 0.00 0.00 0.00 69 1011.2
20211017135413 8 109 0.0 0.0 0.00 0.00 0.00 69 1011.2
20211017135309 8 109 0.0 0.0 0.00 0.00 0.00 68 1011.2
20211017135207 8 109 0.0 0.0 0.00 0.00 0.00 68 1011.2
20211017135108 8 109 0.0 0.0 0.00 0.00 0.00 69 1011.2
20211017135013 8 109 0.0 0.0 0.00 0.00 0.00 68 1011.2
20211017134907 9 109 0.0 0.0 0.00 0.00 0.00 68 1011.2
20211017134808 9 109 0.0 0.0 0.00 0.00 0.00 68 1011.2
20211017134733 9 108 0.0 0.0 0.00 0.00 0.00 68 1011.1
20211017134707 9 109 0.0 0.0 0.00 0.00 0.00 68 1011.1
20211017134604 9 109 0.0 0.0 0.00 0.00 0.00 67 1011.1
20211017134509 9 109 0.0 0.0 0.00 0.00 0.00 67 1011.1
20211017134401 9 108 0.0 0.0 0.00 0.00 0.00 65 1011.1
20211017134234 9 109 0.0 0.0 0.00 0.00 0.00 65 1011.1
20211017134159 9 109 0.0 1.6 0.00 0.00 0.00 65 1011.1
20211017134059 9 109 0.0 3.2 0.00 0.00 0.00 65 1011.0
20211017133958 9 109 0.0 3.2 0.00 0.00 0.00 66 1011.0
20211017133855 9 109 0.0 3.2 0.00 0.00 0.00 66 1011.0
20211017133733 9 109 0.0 3.2 0.00 0.00 0.00 66 1011.0
20211017133649 9 109 0.0 3.2 0.00 0.00 0.00 64 1011.0
20211017133550 9 109 0.0 3.2 0.00 0.00 0.00 64 1011.0
20211017133450 9 109 0.0 3.2 0.00 0.00 0.00 64 1011.0
20211017133350 9 109 0.0 3.2 0.00 0.00 0.00 65 1011.0
20211017133233 9 108 0.0 3.2 0.00 0.00 0.00 65 1010.9
20211017133144 9 120 0.0 3.2 0.00 0.00 0.00 66 1010.9
20211017133043 9 116 0.0 1.6 0.00 0.00 0.00 67 1010.9
20211017132943 9 95 0.0 1.6 0.00 0.00 0.00 67 1010.9
20211017132842 9 95 0.0 1.6 0.00 0.00 0.00 67 1010.9
20211017132732 9 95 0.0 1.6 0.00 0.00 0.00 67 1010.9
20211017132641 9 94 0.0 1.6 0.00 0.00 0.00 68 1011.0
20211017132540 9 95 0.0 0.0 0.00 0.00 0.00 68 1011.0
20211017132440 9 95 0.0 0.0 0.00 0.00 0.00 68 1011.0
20211017132337 9 95 0.0 0.0 0.00 0.00 0.00 69 1011.0
20211017132235 9 95 0.0 0.0 0.00 0.00 0.00 69 1011.0
20211017132131 9 95 0.0 0.0 0.00 0.00 0.00 69 1011.0
20211017132031 9 95 0.0 0.0 0.00 0.00 0.00 70 1011.0
20211017131932 9 95 0.0 0.0 0.00 0.00 0.00 69 1011.0
20211017131831 9 95 0.0 0.0 0.00 0.00 0.00 68 1011.0
20211017131733 9 95 0.0 0.0 0.00 0.00 0.00 68 1011.0
20211017131630 9 95 0.0 0.0 0.00 0.00 0.00 68 1011.0
20211017131530 9 95 0.0 0.0 0.00 0.00 0.00 67 1011.0
20211017131427 9 95 0.0 0.0 0.00 0.00 0.00 67 1011.0
20211017131326 9 94 0.0 0.0 0.00 0.00 0.00 67 1010.9
20211017131226 9 95 0.0 0.0 0.00 0.00 0.00 67 1010.9
20211017131123 9 95 0.0 0.0 0.00 0.00 0.00 66 1010.9
20211017131026 9 94 0.0 0.0 0.00 0.00 0.00 64 1010.8
20211017130922 9 95 0.0 0.0 0.00 0.00 0.00 65 1010.9
20211017130819 9 95 0.0 0.0 0.00 0.00 0.00 66 1010.9
20211017130715 9 95 0.0 0.0 0.00 0.00 0.00 66 1010.9
20211017130614 9 94 0.0 0.0 0.00 0.00 0.00 66 1010.8
20211017130513 9 95 0.0 0.0 0.00 0.00 0.00 67 1010.9
20211017130413 9 95 0.0 0.0 0.00 0.00 0.00 67 1010.9
20211017130313 9 95 0.0 0.0 0.00 0.00 0.00 67 1010.9
20211017130213 9 95 0.0 0.0 0.00 0.00 0.00 66 1010.9
20211017130111 9 95 0.0 0.0 0.00 0.00 0.00 67 1010.9
20211017130020 9 95 0.0 0.0 0.00 0.00 0.00 69 1010.9
20211017125910 9 95 0.0 0.0 0.00 0.00 0.00 69 1010.9
20211017125807 9 94 0.0 0.0 0.00 0.00 0.00 68 1010.8
20211017125724 9 95 0.0 0.0 0.00 0.00 0.00 67 1010.8
20211017125703 9 95 0.0 0.0 0.00 0.00 0.00 67 1010.8
20211017125602 9 95 0.0 0.0 0.00 0.00 0.00 66 1010.9
20211017125506 9 95 0.0 0.0 0.00 0.00 0.00 67 1010.8
20211017125401 9 94 0.0 0.0 0.00 0.00 0.00 66 1010.9
20211017125301 9 95 0.0 0.0 0.00 0.00 0.00 67 1010.9
20211017125222 9 95 0.0 0.0 0.00 0.00 0.00 68 1010.9
20211017125158 9 95 0.0 0.0 0.00 0.00 0.00 68 1010.9
20211017125056 9 95 0.0 0.0 0.00 0.00 0.00 69 1010.8
20211017124956 9 95 0.0 0.0 0.00 0.00 0.00 69 1010.9
20211017124856 9 95 0.0 0.0 0.00 0.00 0.00 69 1010.9
20211017124755 9 95 0.0 0.0 0.00 0.00 0.00 69 1010.9
20211017124721 9 94 0.0 0.0 0.00 0.00 0.00 69 1010.9
20211017124656 9 95 0.0 0.0 0.00 0.00 0.00 69 1010.9
20211017124553 9 95 0.0 0.0 0.00 0.00 0.00 68 1010.9
20211017124451 9 95 0.0 0.0 0.00 0.00 0.00 67 1010.9
20211017124351 9 95 0.0 0.0 0.00 0.00 0.00 67 1010.9
20211017124249 9 95 0.0 0.0 0.00 0.00 0.00 68 1010.9
20211017124219 9 95 0.0 0.0 0.00 0.00 0.00 70 1010.9
20211017124146 9 95 0.0 0.0 0.00 0.00 0.00 70 1011.0
20211017124044 9 94 0.0 0.0 0.00 0.00 0.00 70 1011.0
20211017123944 9 95 0.0 0.0 0.00 0.00 0.00 69 1011.0
20211017123844 9 94 0.0 0.0 0.00 0.00 0.00 69 1011.0
20211017123717 9 95 0.0 0.0 0.00 0.00 0.00 68 1011.0
20211017123641 9 95 0.0 0.0 0.00 0.00 0.00 68 1011.0
20211017123539 9 95 0.0 0.0 0.00 0.00 0.00 68 1011.0
20211017123439 9 95 0.0 0.0 0.00 0.00 0.00 68 1011.0
20211017123339 9 94 0.0 0.0 0.00 0.00 0.00 67 1011.0
20211017123217 10 95 0.0 0.0 0.00 0.00 0.00 68 1011.0
20211017123135 10 95 0.0 0.0 0.00 0.00 0.00 68 1011.0
20211017123037 10 95 0.0 0.0 0.00 0.00 0.00 67 1011.0
20211017122934 10 95 0.0 0.0 0.00 0.00 0.00 66 1011.0
20211017122833 10 95 0.0 0.0 0.00 0.00 0.00 66 1011.0
20211017122714 10 95 0.0 0.0 0.00 0.00 0.00 66 1011.0
20211017122627 10 95 0.0 0.0 0.00 0.00 0.00 66 1011.0
20211017122528 10 95 0.0 0.0 0.00 0.00 0.00 66 1011.0
20211017122425 10 95 0.0 0.0 0.00 0.00 0.00 66 1011.0
20211017122326 10 95 0.0 0.0 0.00 0.00 0.00 66 1011.0
20211017122212 10 95 0.0 0.0 0.00 0.00 0.00 66 1011.0
20211017122119 10 95 0.0 0.0 0.00 0.00 0.00 65 1011.0
20211017122020 10 95 0.0 0.0 0.00 0.00 0.00 65 1011.0
20211017121917 10 95 0.0 0.0 0.00 0.00 0.00 64 1011.0
20211017121817 10 95 0.0 0.0 0.00 0.00 0.00 63 1011.0
20211017121716 10 95 0.0 0.0 0.00 0.00 0.00 64 1011.0
20211017121613 10 95 0.0 0.0 0.00 0.00 0.00 64 1011.0
20211017121513 10 95 0.0 0.0 0.00 0.00 0.00 62 1010.9
20211017121413 10 94 0.0 0.0 0.00 0.00 0.00 61 1010.9
20211017121311 10 95 0.0 0.0 0.00 0.00 0.00 60 1010.9
20211017121210 10 95 0.0 0.0 0.00 0.00 0.00 60 1010.9
20211017121108 10 95 0.0 0.0 0.00 0.00 0.00 61 1010.9
20211017121008 10 95 0.0 0.0 0.00 0.00 0.00 61 1011.0
20211017120908 10 95 0.0 0.0 0.00 0.00 0.00 62 1011.0
20211017120805 10 95 0.0 0.0 0.00 0.00 0.00 62 1011.0
20211017120704 10 95 0.0 0.0 0.00 0.00 0.00 62 1011.0
20211017120602 10 95 0.0 0.0 0.00 0.00 0.00 62 1011.0
20211017120502 10 95 0.0 0.0 0.00 0.00 0.00 62 1011.0
20211017120401 10 95 0.0 0.0 0.00 0.00 0.00 61 1011.0
20211017120259 10 95 0.0 0.0 0.00 0.00 0.00 59 1011.0
20211017120158 10 95 0.0 0.0 0.00 0.00 0.00 58 1011.0
20211017120057 11 95 0.0 0.0 0.00 0.00 0.00 58 1011.0
20211017115955 11 95 0.0 0.0 0.00 0.00 0.00 59 1011.1
20211017115855 11 95 0.0 0.0 0.00 0.00 0.00 59 1011.1
20211017115754 11 95 0.0 0.0 0.00 0.00 0.00 59 1011.1
20211017115652 11 95 0.0 0.0 0.00 0.00 0.00 58 1011.1
20211017115549 11 94 0.0 0.0 0.00 0.00 0.00 57 1011.1
20211017115449 11 95 0.0 0.0 0.00 0.00 0.00 55 1011.1
20211017115350 11 95 0.0 0.0 0.00 0.00 0.00 56 1011.1
20211017115247 11 95 0.0 0.0 0.00 0.00 0.00 56 1011.1
20211017115154 11 95 0.0 0.0 0.00 0.00 0.00 56 1011.0
20211017115039 11 95 0.0 0.0 0.00 0.00 0.00 55 1011.0
20211017114941 11 95 0.0 0.0 0.00 0.00 0.00 56 1011.0
20211017114840 11 95 0.0 0.0 0.00 0.00 0.00 57 1011.1
20211017114739 11 95 0.0 0.0 0.00 0.00 0.00 58 1011.1
20211017114640 11 95 0.0 0.0 0.00 0.00 0.00 57 1011.1
20211017114537 11 95 0.0 0.0 0.00 0.00 0.00 58 1011.0
20211017114437 11 95 0.0 0.0 0.00 0.00 0.00 58 1011.0
20211017114338 11 95 0.0 0.0 0.00 0.00 0.00 59 1011.0
20211017114234 11 94 0.0 0.0 0.00 0.00 0.00 59 1011.1
20211017114134 11 95 0.0 0.0 0.00 0.00 0.00 58 1011.1
20211017114033 10 95 0.0 0.0 0.00 0.00 0.00 57 1011.1
20211017113932 10 95 0.0 0.0 0.00 0.00 0.00 57 1011.1
20211017113831 10 95 0.0 0.0 0.00 0.00 0.00 56 1011.1
20211017113730 10 95 0.0 0.0 0.00 0.00 0.00 56 1011.1
20211017113630 10 95 0.0 0.0 0.00 0.00 0.00 56 1011.1
20211017113526 10 95 0.0 0.0 0.00 0.00 0.00 56 1011.2
20211017113426 10 95 0.0 0.0 0.00 0.00 0.00 56 1011.2
20211017113326 10 95 0.0 0.0 0.00 0.00 0.00 57 1011.1
20211017113223 10 95 0.0 0.0 0.00 0.00 0.00 57 1011.2
20211017113123 10 95 0.0 0.0 0.00 0.00 0.00 57 1011.1
20211017113020 10 95 0.0 0.0 0.00 0.00 0.00 57 1011.1
20211017112919 10 94 0.0 0.0 0.00 0.00 0.00 57 1011.1
20211017112820 10 95 0.0 0.0 0.00 0.00 0.00 58 1011.2
20211017112717 10 95 0.0 0.0 0.00 0.00 0.00 57 1011.1
20211017112616 10 95 0.0 0.0 0.00 0.00 0.00 57 1011.1
20211017112514 10 94 0.0 0.0 0.00 0.00 0.00 57 1011.1
20211017112414 11 95 0.0 0.0 0.00 0.00 0.00 58 1011.1
20211017112313 11 95 0.0 0.0 0.00 0.00 0.00 61 1011.1
20211017112211 11 95 0.0 0.0 0.00 0.00 0.00 60 1011.1
20211017112111 11 95 0.0 0.0 0.00 0.00 0.00 59 1011.1
20211017112009 11 95 0.0 0.0 0.00 0.00 0.00 58 1011.1
20211017111908 11 95 0.0 0.0 0.00 0.00 0.00 58 1011.2
20211017111808 11 95 0.0 0.0 0.00 0.00 0.00 58 1011.2
20211017111705 11 95 0.0 0.0 0.00 0.00 0.00 58 1011.2
20211017111608 11 95 0.0 0.0 0.00 0.00 0.00 59 1011.2
20211017111510 11 95 0.0 0.0 0.00 0.00 0.00 58 1011.2
20211017111401 11 95 0.0 0.0 0.00 0.00 0.00 58 1011.2
20211017111301 11 95 0.0 0.0 0.00 0.00 0.00 60 1011.2
20211017111200 11 95 0.0 0.0 0.00 0.00 0.00 60 1011.3
20211017111059 11 95 0.0 0.0 0.00 0.00 0.00 60 1011.3
20211017110958 11 95 0.0 0.0 0.00 0.00 0.00 59 1011.2
20211017110855 11 95 0.0 0.0 0.00 0.00 0.00 59 1011.2
20211017110753 11 95 0.0 0.0 0.00 0.00 0.00 59 1011.3
20211017110653 11 95 0.0 0.0 0.00 0.00 0.00 60 1011.3
20211017110553 11 95 0.0 0.0 0.00 0.00 0.00 60 1011.3
20211017110450 11 94 0.0 0.0 0.00 0.00 0.00 59 1011.3
20211017110350 11 95 0.0 0.0 0.00 0.00 0.00 59 1011.3
20211017110247 11 95 0.0 0.0 0.00 0.00 0.00 57 1011.4
20211017110149 11 95 0.0 0.0 0.00 0.00 0.00 56 1011.4
20211017110100 11 95 0.0 0.0 0.00 0.00 0.00 56 1011.4
20211017105945 11 95 0.0 0.0 0.00 0.00 0.00 56 1011.4
20211017105843 11 95 0.0 0.0 0.00 0.00 0.00 56 1011.4
20211017105744 11 95 0.0 0.0 0.00 0.00 0.00 56 1011.4
20211017105642 11 95 0.0 1.6 0.00 0.00 0.00 56 1011.3
20211017105540 11 95 0.0 1.6 0.00 0.00 0.00 56 1011.4
20211017105439 11 95 0.0 1.6 0.00 0.00 0.00 56 1011.4
20211017105337 11 95 0.0 1.6 0.00 0.00 0.00 56 1011.4
20211017105238 11 95 0.0 1.6 0.00 0.00 0.00 56 1011.4
20211017105136 11 95 0.0 1.6 0.00 0.00 0.00 57 1011.5
20211017105042 11 95 0.0 1.6 0.00 0.00 0.00 58 1011.5
20211017104929 11 95 0.0 1.6 0.00 0.00 0.00 56 1011.5
20211017104827 11 95 0.0 1.6 0.00 0.00 0.00 56 1011.4
20211017104727 11 95 0.0 1.6 0.00 0.00 0.00 56 1011.5
20211017104627 11 94 0.0 1.6 0.00 0.00 0.00 56 1011.5
20211017104529 11 95 0.0 1.6 0.00 0.00 0.00 55 1011.5
20211017104423 11 95 0.0 1.6 0.00 0.00 0.00 55 1011.5
20211017104324 11 95 0.0 1.6 0.00 0.00 0.00 56 1011.5
20211017104224 11 95 0.0 1.6 0.00 0.00 0.00 56 1011.5
20211017104123 11 95 0.0 1.6 0.00 0.00 0.00 57 1011.5
20211017104024 11 95 0.0 0.0 0.00 0.00 0.00 56 1011.5
20211017103922 11 95 0.0 0.0 0.00 0.00 0.00 55 1011.5
20211017103820 11 95 0.0 0.0 0.00 0.00 0.00 55 1011.5
20211017103717 11 95 0.0 0.0 0.00 0.00 0.00 56 1011.5
20211017103617 11 95 0.0 0.0 0.00 0.00 0.00 57 1011.6
20211017103516 11 95 0.0 0.0 0.00 0.00 0.00 58 1011.5
20211017103413 11 95 0.0 0.0 0.00 0.00 0.00 58 1011.5
20211017103316 11 95 0.0 0.0 0.00 0.00 0.00 59 1011.6
20211017103213 11 95 0.0 0.0 0.00 0.00 0.00 59 1011.6
20211017103112 11 95 0.0 0.0 0.00 0.00 0.00 60 1011.6
20211017103010 11 95 0.0 0.0 0.00 0.00 0.00 60 1011.6
20211017102909 11 95 0.0 0.0 0.00 0.00 0.00 60 1011.6
20211017102809 11 95 0.0 0.0 0.00 0.00 0.00 58 1011.6
20211017102705 11 95 0.0 0.0 0.00 0.00 0.00 56 1011.6
20211017102606 11 94 0.0 0.0 0.00 0.00 0.00 56 1011.6
20211017102510 11 95 0.0 0.0 0.00 0.00 0.00 57 1011.6
20211017102359 11 95 0.0 0.0 0.00 0.00 0.00 57 1011.6
20211017102257 11 95 0.0 0.0 0.00 0.00 0.00 57 1011.6
20211017102157 11 95 0.0 0.0 0.00 0.00 0.00 59 1011.7
20211017102057 11 95 0.0 0.0 0.00 0.00 0.00 57 1011.7
20211017102013 11 95 0.0 0.0 0.00 0.00 0.00 55 1011.6
20211017101856 11 95 0.0 1.6 0.00 0.00 0.00 55 1011.7
20211017101755 11 95 0.0 1.6 0.00 0.00 0.00 56 1011.7
20211017101656 11 95 0.0 1.6 0.00 0.00 0.00 56 1011.7
20211017101551 11 95 0.0 1.6 0.00 0.00 0.00 56 1011.7
20211017101505 11 95 0.0 1.6 0.00 0.00 0.00 56 1011.7
20211017101347 11 95 0.0 3.2 0.00 0.00 0.00 57 1011.7
20211017101247 11 95 0.0 3.2 0.00 0.00 0.00 57 1011.7
20211017101146 11 95 1.6 3.2 0.00 0.00 0.00 57 1011.8
20211017101045 11 95 1.6 3.2 0.00 0.00 0.00 57 1011.8
20211017100959 11 95 1.6 3.2 0.00 0.00 0.00 57 1011.7
20211017100843 11 95 1.6 3.2 0.00 0.00 0.00 57 1011.7
20211017100740 11 95 1.6 3.2 0.00 0.00 0.00 58 1011.7
20211017100640 11 95 1.6 3.2 0.00 0.00 0.00 58 1011.7
20211017100539 11 95 1.6 3.2 0.00 0.00 0.00 58 1011.7
20211017100453 11 95 0.0 3.2 0.00 0.00 0.00 59 1011.7
20211017100340 11 96 0.0 1.6 0.00 0.00 0.00 58 1011.7
20211017100238 11 96 0.0 1.6 0.00 0.00 0.00 58 1011.7
20211017100138 11 96 0.0 1.6 0.00 0.00 0.00 58 1011.7
20211017100036 11 96 0.0 1.6 0.00 0.00 0.00 58 1011.7
20211017095948 11 104 0.0 1.6 0.00 0.00 0.00 59 1011.7
20211017095829 11 135 0.0 1.6 0.00 0.00 0.00 61 1011.8
20211017095734 11 142 0.0 1.6 0.00 0.00 0.00 62 1011.8
20211017095627 11 142 0.0 1.6 0.00 0.00 0.00 62 1011.8
20211017095527 11 143 0.0 1.6 0.00 0.00 0.00 61 1011.8
20211017095440 11 142 0.0 0.0 0.00 0.00 0.00 61 1011.8
20211017095323 11 179 0.0 0.0 0.00 0.00 0.00 61 1011.8
20211017095223 11 180 0.0 0.0 0.00 0.00 0.00 59 1011.8
20211017095123 11 180 0.0 0.0 0.00 0.00 0.00 58 1011.9
20211017095023 11 180 0.0 0.0 0.00 0.00 0.00 59 1011.9
20211017094934 11 179 0.0 0.0 0.00 0.00 0.00 59 1011.8
20211017094815 11 179 0.0 0.0 0.00 0.00 0.00 59 1011.9
20211017094715 11 179 0.0 0.0 0.00 0.00 0.00 60 1011.9
20211017094615 11 181 0.0 0.0 0.00 0.00 0.00 60 1011.9
20211017094516 11 181 0.0 0.0 0.00 0.00 0.00 62 1011.9
20211017094429 11 180 0.0 0.0 0.00 0.00 0.00 62 1011.9
20211017094312 11 179 0.0 0.0 0.00 0.00 0.00 61 1011.9
20211017094212 11 179 0.0 0.0 0.00 0.00 0.00 62 1011.9
20211017094112 11 180 0.0 0.0 0.00 0.00 0.00 62 1011.9
20211017094013 11 179 0.0 0.0 0.00 0.00 0.00 63 1011.9
20211017093923 11 180 0.0 0.0 0.00 0.00 0.00 63 1011.9
20211017093806 11 179 0.0 0.0 0.00 0.00 0.00 64 1011.9
20211017093703 11 179 0.0 0.0 0.00 0.00 0.00 64 1011.9
20211017093603 11 179 0.0 0.0 0.00 0.00 0.00 64 1011.9
20211017093503 11 180 0.0 0.0 0.00 0.00 0.00 65 1011.9
20211017093406 11 179 0.0 0.0 0.00 0.00 0.00 65 1011.8
20211017093257 11 179 0.0 0.0 0.00 0.00 0.00 65 1011.8
20211017093157 11 180 0.0 0.0 0.00 0.00 0.00 65 1011.9
20211017093057 11 180 0.0 0.0 0.00 0.00 0.00 65 1011.9
20211017092957 11 179 0.0 0.0 0.00 0.00 0.00 64 1011.9
20211017092858 11 180 0.0 0.0 0.00 0.00 0.00 64 1011.9
20211017092754 11 179 0.0 0.0 0.00 0.00 0.00 61 1011.9
20211017092653 11 179 0.0 0.0 0.00 0.00 0.00 61 1011.9
20211017092555 11 179 0.0 0.0 0.00 0.00 0.00 61 1012.0
20211017092453 11 180 0.0 0.0 0.00 0.00 0.00 60 1012.0
20211017092352 11 179 0.0 0.0 0.00 0.00 0.00 61 1012.0
20211017092247 11 179 0.0 0.0 0.00 0.00 0.00 60 1012.0
20211017092145 11 180 0.0 0.0 0.00 0.00 0.00 59 1012.0
20211017092046 11 181 0.0 0.0 0.00 0.00 0.00 60 1012.0
20211017091946 11 180 0.0 0.0 0.00 0.00 0.00 61 1012.0
20211017091846 11 179 0.0 0.0 0.00 0.00 0.00 63 1012.0
20211017091739 11 180 0.0 0.0 0.00 0.00 0.00 62 1012.0
20211017091639 11 179 0.0 0.0 0.00 0.00 0.00 60 1012.0
20211017091539 11 179 0.0 0.0 0.00 0.00 0.00 59 1012.1
20211017091441 11 181 0.0 0.0 0.00 0.00 0.00 59 1012.1
20211017091340 11 179 0.0 0.0 0.00 0.00 0.00 59 1012.1
20211017091239 11 179 0.0 0.0 0.00 0.00 0.00 58 1012.1
20211017091137 11 179 0.0 0.0 0.00 0.00 0.00 60 1012.1
20211017091037 11 179 0.0 0.0 0.00 0.00 0.00 60 1012.1
20211017090936 11 179 0.0 0.0 0.00 0.00 0.00 58 1012.1
20211017090835 11 179 0.0 0.0 0.00 0.00 0.00 59 1012.1
20211017090727 11 179 0.0 0.0 0.00 0.00 0.00 59 1012.1
20211017090627 11 179 0.0 0.0 0.00 0.00 0.00 60 1012.2
20211017090527 11 181 0.0 0.0 0.00 0.00 0.00 60 1012.1
20211017090427 11 181 0.0 0.0 0.00 0.00 0.00 61 1012.1
20211017090328 11 179 0.0 0.0 0.00 0.00 0.00 61 1012.2
20211017090228 11 179 0.0 0.0 0.00 0.00 0.00 63 1012.1
20211017090126 11 180 0.0 0.0 0.00 0.00 0.00 64 1012.2
20211017090037 11 179 0.0 0.0 0.00 0.00 0.00 63 1012.2
20211017085924 11 181 0.0 0.0 0.00 0.00 0.00 60 1012.1
20211017085823 11 180 0.0 0.0 0.00 0.00 0.00 63 1012.1
20211017085718 11 180 0.0 0.0 0.00 0.00 0.00 61 1012.2
20211017085615 11 180 0.0 0.0 0.00 0.00 0.00 63 1012.2
20211017085515 11 180 0.0 0.0 0.00 0.00 0.00 63 1012.2
20211017085416 11 180 0.0 0.0 0.00 0.00 0.00 62 1012.2
20211017085317 11 180 0.0 0.0 0.00 0.00 0.00 62 1012.2
20211017085213 11 179 0.0 0.0 0.00 0.00 0.00 61 1012.2
20211017085114 11 181 0.0 0.0 0.00 0.00 0.00 63 1012.1
20211017085014 11 180 0.0 0.0 0.00 0.00 0.00 64 1012.2
20211017084912 11 180 0.0 0.0 0.00 0.00 0.00 63 1012.2
20211017084812 11 180 0.0 0.0 0.00 0.00 0.00 62 1012.2
20211017084707 11 180 0.0 0.0 0.00 0.00 0.00 61 1012.2
20211017084608 11 180 0.0 0.0 0.00 0.00 0.00 58 1012.2
20211017084507 11 179 0.0 0.0 0.00 0.00 0.00 58 1012.2
20211017084406 11 180 0.0 0.0 0.00 0.00 0.00 61 1012.2
20211017084304 11 179 0.0 0.0 0.00 0.00 0.00 59 1012.3
20211017084157 11 181 0.0 0.0 0.00 0.00 0.00 57 1012.2
20211017084057 11 180 0.0 0.0 0.00 0.00 0.00 56 1012.2
20211017083957 11 181 0.0 0.0 0.00 0.00 0.00 56 1012.3
20211017083857 11 180 0.0 0.0 0.00 0.00 0.00 57 1012.2
20211017083758 11 180 0.0 0.0 0.00 0.00 0.00 58 1012.2
20211017083656 12 181 0.0 0.0 0.00 0.00 0.00 58 1012.3
20211017083555 12 181 0.0 0.0 0.00 0.00 0.00 58 1012.3
20211017083455 12 180 0.0 0.0 0.00 0.00 0.00 56 1012.3
20211017083354 12 180 0.0 0.0 0.00 0.00 0.00 56 1012.3
20211017083253 12 180 0.0 0.0 0.00 0.00 0.00 57 1012.3
20211017083147 12 180 0.0 0.0 0.00 0.00 0.00 58 1012.3
20211017083047 12 180 0.0 0.0 0.00 0.00 0.00 57 1012.3
20211017082947 12 180 0.0 0.0 0.00 0.00 0.00 58 1012.3
20211017082848 12 181 0.0 0.0 0.00 0.00 0.00 57 1012.3
20211017082745 12 180 0.0 0.0 0.00 0.00 0.00 57 1012.4
20211017082645 12 180 0.0 0.0 0.00 0.00 0.00 57 1012.4
20211017082545 12 181 0.0 0.0 0.00 0.00 0.00 57 1012.4
20211017082444 11 181 0.0 0.0 0.00 0.00 0.00 57 1012.4
20211017082343 11 180 0.0 0.0 0.00 0.00 0.00 58 1012.4
20211017082246 11 179 0.0 0.0 0.00 0.00 0.00 58 1012.4
20211017082236 11 180 0.0 0.0 0.00 0.00 0.00 58 1012.4
20211017082144 11 179 0.0 0.0 0.00 0.00 0.00 59 1012.4
20211017082041 11 180 0.0 0.0 0.00 0.00 0.00 59 1012.3
20211017081939 11 180 0.0 0.0 0.00 0.00 0.00 58 1012.4
20211017081839 11 181 0.0 0.0 0.00 0.00 0.00 59 1012.3
20211017081730 11 180 0.0 0.0 0.00 0.00 0.00 59 1012.3
20211017081637 11 180 0.0 0.0 0.00 0.00 0.00 59 1012.3
20211017081535 11 180 0.0 0.0 0.00 0.00 0.00 59 1012.4
20211017081436 11 181 0.0 0.0 0.00 0.00 0.00 60 1012.4
20211017081333 11 179 0.0 0.0 0.00 0.00 0.00 61 1012.4
20211017081225 11 180 0.0 0.0 0.00 0.00 0.00 63 1012.4
20211017081134 11 180 0.0 0.0 0.00 0.00 0.00 63 1012.4
20211017081034 11 180 0.0 0.0 0.00 0.00 0.00 63 1012.4
20211017080933 11 181 0.0 0.0 0.00 0.00 0.00 63 1012.4
20211017080832 11 180 0.0 0.0 0.00 0.00 0.00 62 1012.4
20211017080736 11 179 0.0 0.0 0.00 0.00 0.00 63 1012.4
20211017080725 11 180 0.0 0.0 0.00 0.00 0.00 63 1012.4
20211017080629 12 180 0.0 0.0 0.00 0.00 0.00 63 1012.4
20211017080529 12 180 0.0 0.0 0.00 0.00 0.00 63 1012.3
20211017080430 12 179 0.0 0.0 0.00 0.00 0.00 63 1012.3
20211017080329 12 179 0.0 0.0 0.00 0.00 0.00 63 1012.3
20211017080233 12 179 0.0 0.0 0.00 0.00 0.00 63 1012.3
20211017080223 12 180 0.0 0.0 0.00 0.00 0.00 63 1012.3
20211017080127 12 180 0.0 0.0 0.00 0.00 0.00 62 1012.3
20211017080025 12 180 0.0 0.0 0.00 0.00 0.00 63 1012.4
20211017075926 12 181 0.0 0.0 0.00 0.00 0.00 63 1012.4
20211017075826 12 181 0.0 0.0 0.00 0.00 0.00 62 1012.4
20211017075727 12 180 0.0 0.0 0.00 0.00 0.00 63 1012.3
20211017075626 12 180 0.0 0.0 0.00 0.00 0.00 63 1012.4
20211017075526 12 181 0.0 0.0 0.00 0.00 0.00 62 1012.4
20211017075424 12 179 0.0 0.0 0.00 0.00 0.00 62 1012.4
20211017075324 12 181 0.0 0.0 0.00 0.00 0.00 61 1012.4
20211017075228 12 179 0.0 0.0 0.00 0.00 0.00 61 1012.4
20211017075222 12 180 0.0 0.0 0.00 0.00 0.00 61 1012.4
20211017075122 12 180 0.0 0.0 0.00 0.00 0.00 59 1012.4
20211017075020 12 181 0.0 0.0 0.00 0.00 0.00 60 1012.4
20211017074915 12 179 0.0 0.0 0.00 0.00 0.00 60 1012.4
20211017074814 12 181 0.0 0.0 0.00 0.00 0.00 60 1012.4
20211017074723 12 181 0.0 0.0 0.00 0.00 0.00 59 1012.4
20211017074714 12 180 0.0 0.0 0.00 0.00 0.00 59 1012.4
20211017074614 12 181 0.0 0.0 0.00 0.00 0.00 60 1012.4
20211017074516 12 180 0.0 0.0 0.00 0.00 0.00 59 1012.4
20211017074410 12 181 0.0 0.0 0.00 0.00 0.00 59 1012.4
20211017074309 12 180 0.0 0.0 0.00 0.00 0.00 59 1012.4
20211017074211 12 180 0.0 0.0 0.00 0.00 0.00 59 1012.4
20211017074110 12 180 0.0 0.0 0.00 0.00 0.00 58 1012.4
20211017074012 12 180 0.0 0.0 0.00 0.00 0.00 58 1012.4
20211017073905 12 181 0.0 0.0 0.00 0.00 0.00 60 1012.4
20211017073805 12 181 0.0 0.0 0.00 0.00 0.00 60 1012.4
20211017073721 12 179 0.0 0.0 0.00 0.00 0.00 59 1012.4
20211017073705 12 181 0.0 0.0 0.00 0.00 0.00 59 1012.4
20211017073604 12 179 0.0 0.0 0.00 0.00 0.00 58 1012.4
20211017073503 12 181 0.0 0.0 0.00 0.00 0.00 58 1012.4
20211017073358 12 181 0.0 0.0 0.00 0.00 0.00 58 1012.4
20211017073256 12 181 0.0 0.0 0.00 0.00 0.00 57 1012.4
20211017073221 12 181 0.0 0.0 0.00 0.00 0.00 57 1012.5
20211017073155 12 180 0.0 1.6 0.00 0.00 0.00 57 1012.5
20211017073055 13 180 0.0 1.6 0.00 0.00 0.00 57 1012.4
20211017072955 13 180 0.0 1.6 0.00 0.00 0.00 55 1012.4
20211017072851 13 180 0.0 1.6 0.00 0.00 0.00 55 1012.5
20211017072720 13 180 0.0 1.6 0.00 0.00 0.00 54 1012.4
20211017072650 13 180 0.0 1.6 0.00 0.00 0.00 54 1012.4
20211017072550 13 180 0.0 1.6 0.00 0.00 0.00 55 1012.5
20211017072449 13 181 0.0 1.6 0.00 0.00 0.00 55 1012.5
20211017072343 13 181 0.0 1.6 0.00 0.00 0.00 55 1012.5
20211017072244 13 180 0.0 1.6 0.00 0.00 0.00 56 1012.5
20211017072221 13 180 0.0 1.6 0.00 0.00 0.00 55 1012.5
20211017072144 13 180 0.0 0.0 0.00 0.00 0.00 55 1012.5
20211017072044 13 105 0.0 0.0 0.00 0.00 0.00 56 1012.5
20211017071942 13 105 0.0 0.0 0.00 0.00 0.00 55 1012.5
20211017071835 13 106 0.0 0.0 0.00 0.00 0.00 55 1012.5
20211017071719 13 105 0.0 1.6 0.00 0.00 0.00 55 1012.4
20211017071636 13 105 0.0 1.6 0.00 0.00 0.00 55 1012.4
20211017071535 13 106 0.0 1.6 0.00 0.00 0.00 55 1012.4
20211017071434 13 106 0.0 1.6 0.00 0.00 0.00 56 1012.5
20211017071331 13 105 0.0 1.6 0.00 0.00 0.00 55 1012.5
20211017071218 13 106 0.0 1.6 0.00 0.00 0.00 55 1012.5
20211017071130 13 106 0.0 1.6 0.00 0.00 0.00 56 1012.5
20211017071030 13 105 0.0 1.6 0.00 0.00 0.00 56 1012.5
20211017070929 13 106 0.0 1.6 0.00 0.00 0.00 57 1012.4
20211017070823 13 106 0.0 1.6 0.00 0.00 0.00 55 1012.5
20211017070719 13 105 0.0 1.6 0.00 0.00 0.00 55 1012.4
20211017070624 13 106 0.0 0.0 0.00 0.00 0.00 55 1012.4
20211017070524 13 105 0.0 0.0 0.00 0.00 0.00 55 1012.4
20211017070423 13 105 0.0 0.0 0.00 0.00 0.00 55 1012.4
20211017070323 13 106 0.0 0.0 0.00 0.00 0.00 55 1012.4
20211017070229 13 106 0.0 0.0 0.00 0.00 0.00 55 1012.4
20211017070219 13 105 0.0 0.0 0.00 0.00 0.00 55 1012.4
20211017070127 13 105 0.0 0.0 0.00 0.00 0.00 54 1012.5
20211017070024 13 106 0.0 1.6 0.00 0.00 0.00 55 1012.5
20211017065924 13 105 0.0 1.6 0.00 0.00 0.00 54 1012.5
20211017065820 13 106 0.0 1.6 0.00 0.00 0.00 54 1012.5
20211017065720 14 106 0.0 1.6 0.00 0.00 0.00 54 1012.5
20211017065621 14 106 0.0 1.6 0.00 0.00 0.00 53 1012.5
20211017065520 14 105 0.0 1.6 0.00 0.00 0.00 53 1012.5
20211017065421 14 106 0.0 1.6 0.00 0.00 0.00 53 1012.5
20211017065319 14 105 0.0 1.6 0.00 0.00 0.00 54 1012.5
20211017065223 14 105 0.0 1.6 0.00 0.00 0.00 54 1012.4
20211017065115 14 106 0.0 0.0 0.00 0.00 0.00 54 1012.4
20211017065016 14 106 0.0 1.6 0.00 0.00 0.00 54 1012.4
20211017064916 14 105 0.0 1.6 0.00 0.00 0.00 55 1012.4
20211017064816 14 106 0.0 1.6 0.00 0.00 0.00 54 1012.4
20211017064718 14 105 0.0 1.6 0.00 0.00 0.00 54 1012.5
20211017064616 14 106 0.0 1.6 0.00 0.00 0.00 55 1012.4
20211017064517 14 106 0.0 1.6 0.00 0.00 0.00 55 1012.4
20211017064416 14 106 0.0 1.6 0.00 0.00 0.00 55 1012.5
20211017064315 14 106 0.0 1.6 0.00 0.00 0.00 55 1012.5
20211017064217 14 105 0.0 1.6 0.00 0.00 0.00 55 1012.5
20211017064115 14 105 0.0 1.6 0.00 0.00 0.00 55 1012.5
20211017064015 14 105 0.0 1.6 0.00 0.00 0.00 54 1012.5
20211017063915 14 105 0.0 1.6 0.00 0.00 0.00 54 1012.5
20211017063815 14 105 0.0 1.6 0.00 0.00 0.00 54 1012.5
20211017063718 14 104 0.0 3.2 0.00 0.00 0.00 54 1012.5
20211017063616 14 105 0.0 3.2 0.00 0.00 0.00 55 1012.6
20211017063515 14 104 0.0 3.2 0.00 0.00 0.00 55 1012.5
20211017063416 14 105 0.0 3.2 0.00 0.00 0.00 54 1012.5
20211017063316 14 105 0.0 3.2 0.00 0.00 0.00 54 1012.5
20211017063212 14 104 0.0 3.2 0.00 0.00 0.00 54 1012.6
20211017063112 14 105 0.0 3.2 0.00 0.00 0.00 54 1012.6
20211017063012 14 105 0.0 3.2 0.00 0.00 0.00 54 1012.6
20211017062912 14 104 0.0 3.2 0.00 0.00 0.00 54 1012.6
20211017062812 14 105 0.0 3.2 0.00 0.00 0.00 54 1012.7
20211017062712 14 105 0.0 1.6 0.00 0.00 0.00 54 1012.7
20211017062613 14 104 0.0 0.0 0.00 0.00 0.00 54 1012.6
20211017062513 14 105 0.0 0.0 0.00 0.00 0.00 54 1012.6
20211017062411 14 104 0.0 0.0 0.00 0.00 0.00 54 1012.6
20211017062312 14 105 0.0 0.0 0.00 0.00 0.00 54 1012.6
20211017062217 14 105 0.0 0.0 0.00 0.00 0.00 53 1012.5
20211017062211 15 105 0.0 0.0 0.00 0.00 0.00 53 1012.5
20211017062112 15 105 0.0 0.0 0.00 0.00 0.00 53 1012.6
20211017062012 15 105 0.0 0.0 0.00 0.00 0.00 54 1012.6
20211017061913 15 105 0.0 0.0 0.00 0.00 0.00 53 1012.6
20211017061812 15 105 0.0 0.0 0.00 0.00 0.00 53 1012.5
20211017061712 15 105 0.0 1.6 0.00 0.00 0.00 54 1012.6
20211017061612 15 105 0.0 1.6 0.00 0.00 0.00 53 1012.6
20211017061515 15 105 0.0 1.6 0.00 0.00 0.00 53 1012.6
20211017061412 15 104 0.0 1.6 0.00 0.00 0.00 53 1012.6
20211017061308 15 105 0.0 1.6 0.00 0.00 0.00 53 1012.7
20211017061207 15 105 0.0 1.6 0.00 0.00 0.00 53 1012.7
20211017061108 15 105 0.0 1.6 0.00 0.00 0.00 52 1012.7
20211017061013 15 105 0.0 1.6 0.00 0.00 0.00 52 1012.7
20211017060909 15 104 0.0 1.6 0.00 0.00 0.00 53 1012.7
20211017060808 15 104 0.0 1.6 0.00 0.00 0.00 53 1012.7
20211017060707 15 105 0.0 1.6 0.00 0.00 0.00 53 1012.7
20211017060607 15 105 0.0 1.6 0.00 0.00 0.00 53 1012.6
20211017060508 15 105 0.0 1.6 0.00 0.00 0.00 53 1012.6
20211017060408 15 105 0.0 1.6 0.00 0.00 0.00 53 1012.6
20211017060308 15 105 0.0 1.6 0.00 0.00 0.00 53 1012.6
20211017060214 15 105 0.0 1.6 0.00 0.00 0.00 52 1012.6
20211017060209 15 104 0.0 1.6 0.00 0.00 0.00 52 1012.6
20211017060108 15 104 0.0 1.6 0.00 0.00 0.00 53 1012.6
20211017060016 15 105 0.0 1.6 0.00 0.00 0.00 52 1012.6
20211017055908 15 105 0.0 1.6 0.00 0.00 0.00 53 1012.6
20211017055808 15 105 0.0 1.6 0.00 0.00 0.00 52 1012.6
20211017055707 15 105 0.0 1.6 0.00 0.00 0.00 52 1012.6
20211017055608 15 105 0.0 1.6 0.00 0.00 0.00 52 1012.6
20211017055507 15 105 0.0 3.2 0.00 0.00 0.00 52 1012.6
20211017055403 15 105 0.0 3.2 0.00 0.00 0.00 51 1012.6
20211017055306 15 105 1.6 3.2 0.00 0.00 0.00 52 1012.7
20211017055210 15 105 1.6 3.2 0.00 0.00 0.00 52 1012.7
20211017055204 15 105 1.6 3.2 0.00 0.00 0.00 52 1012.7
20211017055104 16 105 1.6 3.2 0.00 0.00 0.00 52 1012.6
20211017055004 16 105 1.6 3.2 0.00 0.00 0.00 52 1012.7
20211017054903 16 105 1.6 3.2 0.00 0.00 0.00 51 1012.7
20211017054804 16 105 1.6 3.2 0.00 0.00 0.00 51 1012.7
20211017054711 16 105 1.6 3.2 0.00 0.00 0.00 51 1012.7
20211017054704 16 105 1.6 3.2 0.00 0.00 0.00 51 1012.7
20211017054604 16 105 1.6 3.2 0.00 0.00 0.00 51 1012.7
20211017054510 16 91 1.6 3.2 0.00 0.00 0.00 51 1012.7
20211017054405 16 91 1.6 3.2 0.00 0.00 0.00 51 1012.7
20211017054305 16 90 1.6 3.2 0.00 0.00 0.00 51 1012.7
20211017054209 16 101 1.6 3.2 0.00 0.00 0.00 51 1012.7
20211017054203 16 100 1.6 3.2 0.00 0.00 0.00 51 1012.7
20211017054105 16 103 1.6 3.2 0.00 0.00 0.00 51 1012.7
20211017054004 16 91 1.6 3.2 0.00 0.00 0.00 51 1012.7
20211017053904 16 100 1.6 3.2 0.00 0.00 0.00 51 1012.7
20211017053804 16 101 1.6 3.2 0.00 0.00 0.00 51 1012.8
20211017053709 16 100 1.6 3.2 0.00 0.00 0.00 51 1012.7
20211017053704 16 100 1.6 3.2 0.00 0.00 0.00 51 1012.7
20211017053605 16 103 1.6 3.2 0.00 0.00 0.00 51 1012.8
20211017053500 16 105 1.6 3.2 0.00 0.00 0.00 51 1012.8
20211017053402 16 102 1.6 3.2 0.00 0.00 0.00 51 1012.7
20211017053301 16 102 1.6 3.2 0.00 0.00 0.00 51 1012.7
20211017053209 16 104 1.6 3.2 0.00 0.00 0.00 51 1012.7
20211017053159 16 103 1.6 3.2 0.00 0.00 0.00 51 1012.7
20211017053101 16 103 1.6 3.2 0.00 0.00 0.00 51 1012.7
20211017053000 16 103 1.6 6.4 0.00 0.00 0.00 51 1012.7
20211017052901 16 107 1.6 6.4 0.00 0.00 0.00 52 1012.7
20211017052800 16 103 1.6 6.4 0.00 0.00 0.00 52 1012.7
20211017052709 16 74 3.2 6.4 0.00 0.00 0.00 52 1012.7
20211017052702 16 74 3.2 6.4 0.00 0.00 0.00 52 1012.7
20211017052559 16 72 3.2 6.4 0.00 0.00 0.00 52 1012.7
20211017052500 16 72 1.6 6.4 0.00 0.00 0.00 52 1012.7
20211017052401 16 72 1.6 6.4 0.00 0.00 0.00 52 1012.7
20211017052259 16 90 1.6 6.4 0.00 0.00 0.00 52 1012.7
20211017052209 16 93 1.6 6.4 0.00 0.00 0.00 52 1012.7
20211017052159 16 94 1.6 6.4 0.00 0.00 0.00 52 1012.7
20211017052100 16 86 1.6 6.4 0.00 0.00 0.00 53 1012.7
20211017052000 16 102 1.6 4.8 0.00 0.00 0.00 53 1012.7
20211017051900 16 94 0.0 4.8 0.00 0.00 0.00 55 1012.7
20211017051800 16 75 0.0 4.8 0.00 0.00 0.00 54 1012.7
20211017051705 15 101 0.0 3.2 0.00 0.00 0.00 54 1012.7
20211017051700 15 101 0.0 3.2 0.00 0.00 0.00 54 1012.7
20211017051556 15 123 0.0 3.2 0.00 0.00 0.00 56 1012.7
20211017051456 15 127 0.0 1.6 0.00 0.00 0.00 55 1012.7
20211017051357 15 127 0.0 1.6 0.00 0.00 0.00 57 1012.7
20211017051256 15 127 0.0 1.6 0.00 0.00 0.00 56 1012.7
20211017051206 15 127 0.0 1.6 0.00 0.00 0.00 55 1012.7
20211017051156 15 127 0.0 1.6 0.00 0.00 0.00 55 1012.7
20211017051056 15 127 0.0 0.0 0.00 0.00 0.00 56 1012.7
20211017050956 16 127 0.0 0.0 0.00 0.00 0.00 57 1012.7
20211017050856 16 127 0.0 0.0 0.00 0.00 0.00 56 1012.7
20211017050756 16 127 0.0 0.0 0.00 0.00 0.00 56 1012.7
20211017050705 15 127 0.0 0.0 0.00 0.00 0.00 55 1012.7
20211017050656 15 127 0.0 0.0 0.00 0.00 0.00 55 1012.7
20211017050555 15 127 0.0 0.0 0.00 0.00 0.00 54 1012.7
20211017050457 15 127 0.0 0.0 0.00 0.00 0.00 54 1012.8
20211017050356 15 127 0.0 0.0 0.00 0.00 0.00 54 1012.7
20211017050259 15 127 0.0 0.0 0.00 0.00 0.00 54 1012.7
20211017050205 15 127 0.0 0.0 0.00 0.00 0.00 54 1012.8
20211017050156 15 127 0.0 0.0 0.00 0.00 0.00 54 1012.8
20211017050056 15 127 0.0 0.0 0.00 0.00 0.00 54 1012.7
20211017045955 15 127 0.0 0.0 0.00 0.00 0.00 54 1012.6
20211017045855 15 127 0.0 0.0 0.00 0.00 0.00 53 1012.6
20211017045756 15 127 0.0 0.0 0.00 0.00 0.00 53 1012.6
20211017045705 16 127 0.0 0.0 0.00 0.00 0.00 52 1012.7
20211017045651 16 127 0.0 0.0 0.00 0.00 0.00 52 1012.7
20211017045553 16 127 0.0 0.0 0.00 0.00 0.00 52 1012.6
20211017045452 16 127 0.0 0.0 0.00 0.00 0.00 52 1012.6
20211017045352 16 127 0.0 0.0 0.00 0.00 0.00 53 1012.6
20211017045252 16 127 0.0 0.0 0.00 0.00 0.00 53 1012.6
20211017045205 16 127 0.0 0.0 0.00 0.00 0.00 53 1012.6
20211017045152 16 127 0.0 0.0 0.00 0.00 0.00 53 1012.6
20211017045051 16 127 0.0 0.0 0.00 0.00 0.00 53 1012.6
20211017044951 16 127 0.0 0.0 0.00 0.00 0.00 52 1012.5
20211017044851 16 127 0.0 0.0 0.00 0.00 0.00 52 1012.6
20211017044751 16 127 0.0 0.0 0.00 0.00 0.00 52 1012.5
20211017044705 16 127 0.0 0.0 0.00 0.00 0.00 53 1012.5
20211017044652 16 127 0.0 0.0 0.00 0.00 0.00 53 1012.5
20211017044551 16 127 0.0 0.0 0.00 0.00 0.00 53 1012.5
20211017044452 16 127 0.0 0.0 0.00 0.00 0.00 52 1012.5
20211017044352 16 127 0.0 0.0 0.00 0.00 0.00 53 1012.5
20211017044251 16 127 0.0 0.0 0.00 0.00 0.00 53 1012.5
20211017044205 16 127 0.0 0.0 0.00 0.00 0.00 54 1012.5
20211017044152 16 127 0.0 0.0 0.00 0.00 0.00 54 1012.5
20211017044052 16 127 0.0 0.0 0.00 0.00 0.00 53 1012.5
20211017043951 16 127 0.0 0.0 0.00 0.00 0.00 54 1012.5
20211017043852 16 127 0.0 0.0 0.00 0.00 0.00 54 1012.5
20211017043748 16 127 0.0 0.0 0.00 0.00 0.00 53 1012.4
20211017043705 16 127 0.0 0.0 0.00 0.00 0.00 53 1012.5
20211017043648 16 127 0.0 0.0 0.00 0.00 0.00 53 1012.5
20211017043548 16 127 0.0 0.0 0.00 0.00 0.00 53 1012.5
20211017043447 16 127 0.0 0.0 0.00 0.00 0.00 53 1012.5
20211017043348 16 127 0.0 0.0 0.00 0.00 0.00 53 1012.5
20211017043247 16 127 0.0 0.0 0.00 0.00 0.00 54 1012.5
20211017043148 16 127 0.0 0.0 0.00 0.00 0.00 54 1012.4
20211017043048 16 127 0.0 0.0 0.00 0.00 0.00 55 1012.5
20211017042947 16 127 0.0 1.6 0.00 0.00 0.00 56 1012.5
20211017042848 16 127 0.0 1.6 0.00 0.00 0.00 56 1012.4
20211017042748 16 127 0.0 1.6 0.00 0.00 0.00 57 1012.4
20211017042648 16 127 0.0 1.6 0.00 0.00 0.00 56 1012.4
20211017042548 16 127 0.0 1.6 0.00 0.00 0.00 56 1012.4
20211017042448 16 127 0.0 1.6 0.00 0.00 0.00 56 1012.4
20211017042348 16 127 0.0 1.6 0.00 0.00 0.00 57 1012.4
20211017042247 16 127 0.0 1.6 0.00 0.00 0.00 56 1012.4
20211017042147 16 127 0.0 1.6 0.00 0.00 0.00 56 1012.4
20211017042047 16 127 0.0 1.6 0.00 0.00 0.00 56 1012.4
20211017041949 16 127 0.0 1.6 0.00 0.00 0.00 56 1012.4
20211017041844 16 127 0.0 1.6 0.00 0.00 0.00 56 1012.4
20211017041747 16 230 0.0 1.6 0.00 0.00 0.00 55 1012.4
20211017041702 16 229 0.0 1.6 0.00 0.00 0.00 55 1012.4
20211017041644 16 229 0.0 1.6 0.00 0.00 0.00 54 1012.3
20211017041544 16 229 0.0 1.6 0.00 0.00 0.00 54 1012.3
20211017041445 16 229 0.0 1.6 0.00 0.00 0.00 54 1012.3
20211017041344 16 229 0.0 1.6 0.00 0.00 0.00 54 1012.3
20211017041243 16 229 0.0 1.6 0.00 0.00 0.00 54 1012.3
20211017041143 16 229 0.0 1.6 0.00 0.00 0.00 54 1012.3
20211017041044 16 229 0.0 1.6 0.00 0.00 0.00 55 1012.3
20211017040944 16 229 0.0 1.6 0.00 0.00 0.00 54 1012.2
20211017040844 16 229 0.0 1.6 0.00 0.00 0.00 54 1012.3
20211017040744 16 229 0.0 0.0 0.00 0.00 0.00 55 1012.3
20211017040644 16 229 0.0 0.0 0.00 0.00 0.00 55 1012.3
20211017040545 16 229 0.0 0.0 0.00 0.00 0.00 54 1012.2
20211017040446 16 229 0.0 0.0 0.00 0.00 0.00 54 1012.3
20211017040343 16 229 0.0 0.0 0.00 0.00 0.00 55 1012.2
20211017040243 16 229 0.0 0.0 0.00 0.00 0.00 54 1012.3
20211017040143 16 229 0.0 0.0 0.00 0.00 0.00 55 1012.3
20211017040045 16 229 0.0 0.0 0.00 0.00 0.00 55 1012.3
20211017035940 16 229 0.0 0.0 0.00 0.00 0.00 55 1012.3
20211017035840 16 229 0.0 0.0 0.00 0.00 0.00 56 1012.3
20211017035740 16 229 0.0 0.0 0.00 0.00 0.00 56 1012.3
20211017035640 16 229 0.0 0.0 0.00 0.00 0.00 56 1012.3
20211017035545 16 229 0.0 0.0 0.00 0.00 0.00 56 1012.3
20211017035440 16 229 0.0 0.0 0.00 0.00 0.00 56 1012.3
20211017035347 16 229 0.0 0.0 0.00 0.00 0.00 56 1012.3
20211017035240 16 230 0.0 0.0 0.00 0.00 0.00 55 1012.3
20211017035202 16 229 0.0 0.0 0.00 0.00 0.00 55 1012.3
20211017035140 16 230 0.0 0.0 0.00 0.00 0.00 55 1012.2
20211017035040 17 229 0.0 0.0 0.00 0.00 0.00 55 1012.2
20211017034939 17 229 0.0 0.0 0.00 0.00 0.00 54 1012.2
20211017034841 17 229 0.0 0.0 0.00 0.00 0.00 54 1012.2
20211017034740 17 229 0.0 0.0 0.00 0.00 0.00 53 1012.2
20211017034640 17 229 0.0 0.0 0.00 0.00 0.00 54 1012.2
20211017034543 17 229 0.0 0.0 0.00 0.00 0.00 55 1012.2
20211017034441 17 229 0.0 0.0 0.00 0.00 0.00 54 1012.2
20211017034340 17 229 0.0 0.0 0.00 0.00 0.00 54 1012.1
20211017034239 17 229 0.0 0.0 0.00 0.00 0.00 54 1012.1
20211017034159 17 229 0.0 0.0 0.00 0.00 0.00 54 1012.1
20211017034142 17 229 0.0 0.0 0.00 0.00 0.00 54 1012.2
20211017034036 17 229 0.0 0.0 0.00 0.00 0.00 54 1012.2
20211017033936 17 229 0.0 0.0 0.00 0.00 0.00 54 1012.2
20211017033836 17 229 0.0 0.0 0.00 0.00 0.00 54 1012.2
20211017033736 17 229 0.0 0.0 0.00 0.00 0.00 54 1012.2
20211017033657 17 230 0.0 0.0 0.00 0.00 0.00 54 1012.2
20211017033636 17 229 0.0 0.0 0.00 0.00 0.00 54 1012.2
20211017033535 17 229 0.0 0.0 0.00 0.00 0.00 54 1012.2
20211017033437 17 229 0.0 0.0 0.00 0.00 0.00 54 1012.2
20211017033336 17 229 0.0 0.0 0.00 0.00 0.00 54 1012.2
20211017033237 17 229 0.0 0.0 0.00 0.00 0.00 53 1012.1
20211017033157 17 230 0.0 0.0 0.00 0.00 0.00 53 1012.1
20211017033136 17 229 0.0 0.0 0.00 0.00 0.00 53 1012.2
20211017033036 17 229 0.0 0.0 0.00 0.00 0.00 52 1012.2
20211017032936 17 229 0.0 0.0 0.00 0.00 0.00 52 1012.2
20211017032836 17 230 0.0 0.0 0.00 0.00 0.00 52 1012.2
20211017032735 17 229 0.0 0.0 0.00 0.00 0.00 51 1012.1
20211017032636 17 229 0.0 0.0 0.00 0.00 0.00 51 1012.1
20211017032536 17 229 0.0 0.0 0.00 0.00 0.00 51 1012.1
20211017032435 17 229 0.0 0.0 0.00 0.00 0.00 51 1012.1
20211017032335 17 229 0.0 0.0 0.00 0.00 0.00 52 1012.1
20211017032236 17 230 0.0 0.0 0.00 0.00 0.00 52 1012.1
20211017032132 17 229 0.0 0.0 0.00 0.00 0.00 52 1012.1
20211017032032 17 229 0.0 0.0 0.00 0.00 0.00 52 1012.1
20211017031933 17 230 0.0 0.0 0.00 0.00 0.00 52 1012.1
20211017031832 17 229 0.0 0.0 0.00 0.00 0.00 52 1012.1
20211017031733 17 229 0.0 0.0 0.00 0.00 0.00 50 1012.1
20211017031632 17 229 0.0 0.0 0.00 0.00 0.00 50 1012.1
20211017031532 17 229 0.0 0.0 0.00 0.00 0.00 51 1012.1
20211017031433 17 229 0.0 0.0 0.00 0.00 0.00 50 1012.1
20211017031332 17 229 0.0 0.0 0.00 0.00 0.00 50 1012.1
20211017031233 17 229 0.0 0.0 0.00 0.00 0.00 50 1012.1
20211017031157 17 230 0.0 0.0 0.00 0.00 0.00 50 1012.1
20211017031132 17 229 0.0 0.0 0.00 0.00 0.00 50 1012.1
20211017031032 17 229 0.0 0.0 0.00 0.00 0.00 50 1012.1
20211017030932 17 230 0.0 0.0 0.00 0.00 0.00 52 1012.0
20211017030832 17 229 0.0 0.0 0.00 0.00 0.00 52 1012.1
20211017030733 17 229 0.0 0.0 0.00 0.00 0.00 51 1012.0
20211017030657 17 230 0.0 0.0 0.00 0.00 0.00 51 1012.0
20211017030631 17 229 0.0 0.0 0.00 0.00 0.00 52 1012.0
20211017030532 17 229 0.0 0.0 0.00 0.00 0.00 51 1012.0
20211017030432 17 229 0.0 0.0 0.00 0.00 0.00 51 1012.0
20211017030332 17 229 0.0 0.0 0.00 0.00 0.00 50 1012.1
20211017030229 17 230 0.0 0.0 0.00 0.00 0.00 50 1012.0
20211017030153 17 229 0.0 0.0 0.00 0.00 0.00 50 1012.0
20211017030128 17 229 0.0 0.0 0.00 0.00 0.00 51 1012.0
20211017030032 18 229 0.0 0.0 0.00 0.00 0.00 51 1012.0
20211017025931 18 229 0.0 0.0 0.00 0.00 0.00 51 1012.0
20211017025828 18 229 0.0 0.0 0.00 0.00 0.00 51 1012.0
20211017025728 18 230 0.0 0.0 0.00 0.00 0.00 51 1012.0
20211017025653 18 229 0.0 0.0 0.00 0.00 0.00 51 1012.0
20211017025629 18 229 0.0 0.0 0.00 0.00 0.00 50 1012.0
20211017025528 18 229 0.0 0.0 0.00 0.00 0.00 50 1012.0
20211017025429 18 230 0.0 0.0 0.00 0.00 0.00 51 1012.0
20211017025328 18 229 0.0 0.0 0.00 0.00 0.00 50 1012.0
20211017025228 18 229 0.0 0.0 0.00 0.00 0.00 50 1012.0
20211017025153 18 229 0.0 0.0 0.00 0.00 0.00 50 1012.0
20211017025131 18 229 0.0 0.0 0.00 0.00 0.00 49 1012.0
20211017025028 18 229 0.0 0.0 0.00 0.00 0.00 49 1012.0
20211017024928 18 230 0.0 0.0 0.00 0.00 0.00 49 1012.0
20211017024828 18 229 0.0 0.0 0.00 0.00 0.00 49 1012.0
20211017024728 18 229 0.0 0.0 0.00 0.00 0.00 49 1012.0
20211017024653 18 230 0.0 0.0 0.00 0.00 0.00 49 1012.0
20211017024628 18 229 0.0 0.0 0.00 0.00 0.00 48 1012.0
20211017024528 18 229 0.0 0.0 0.00 0.00 0.00 47 1012.0
20211017024429 18 229 0.0 0.0 0.00 0.00 0.00 47 1012.0
20211017024323 18 229 0.0 0.0 0.00 0.00 0.00 47 1012.0
20211017024224 18 229 0.0 0.0 0.00 0.00 0.00 47 1011.9
20211017024153 18 229 0.0 0.0 0.00 0.00 0.00 47 1011.9
20211017024123 18 230 0.0 0.0 0.00 0.00 0.00 47 1012.0
20211017024025 18 229 0.0 0.0 0.00 0.00 0.00 48 1011.9
20211017023924 18 230 0.0 0.0 0.00 0.00 0.00 46 1011.9
20211017023824 18 229 0.0 0.0 0.00 0.00 0.00 46 1011.9
20211017023724 18 229 0.0 0.0 0.00 0.00 0.00 47 1011.9
20211017023654 18 229 0.0 0.0 0.00 0.00 0.00 47 1011.9
20211017023624 18 229 0.0 0.0 0.00 0.00 0.00 47 1012.0
20211017023524 18 229 0.0 0.0 0.00 0.00 0.00 49 1012.0
20211017023424 18 229 0.0 0.0 0.00 0.00 0.00 48 1011.9
20211017023324 18 229 0.0 0.0 0.00 0.00 0.00 48 1011.9
20211017023224 18 229 0.0 0.0 0.00 0.00 0.00 48 1012.0
20211017023153 18 230 0.0 0.0 0.00 0.00 0.00 47 1012.0
20211017023123 19 230 0.0 0.0 0.00 0.00 0.00 47 1012.0
20211017023024 19 229 0.0 0.0 0.00 0.00 0.00 46 1011.9
20211017022924 19 229 0.0 0.0 0.00 0.00 0.00 47 1011.9
20211017022823 19 229 0.0 0.0 0.00 0.00 0.00 46 1012.0
20211017022724 19 229 0.0 0.0 0.00 0.00 0.00 48 1012.0
20211017022654 19 229 0.0 0.0 0.00 0.00 0.00 48 1012.0
20211017022624 19 229 0.0 0.0 0.00 0.00 0.00 48 1011.9
20211017022525 19 229 0.0 0.0 0.00 0.00 0.00 47 1011.9
20211017022419 19 229 0.0 0.0 0.00 0.00 0.00 47 1011.9
20211017022320 19 229 0.0 0.0 0.00 0.00 0.00 47 1011.9
20211017022220 19 229 0.0 0.0 0.00 0.00 0.00 47 1011.9
20211017022153 19 229 0.0 0.0 0.00 0.00 0.00 47 1011.9
20211017022120 20 229 0.0 0.0 0.00 0.00 0.00 47 1011.9
20211017022023 20 229 0.0 0.0 0.00 0.00 0.00 47 1011.9
20211017021919 20 230 0.0 0.0 0.00 0.00 0.00 46 1011.9
20211017021819 20 229 0.0 0.0 0.00 0.00 0.00 46 1011.9
20211017021720 20 229 0.0 0.0 0.00 0.00 0.00 46 1011.9
20211017021650 20 229 0.0 0.0 0.00 0.00 0.00 46 1011.9
20211017021619 20 229 0.0 0.0 0.00 0.00 0.00 46 1011.9
20211017021522 20 229 0.0 0.0 0.00 0.00 0.00 45 1011.9
20211017021427 20 229 0.0 0.0 0.00 0.00 0.00 45 1011.8
20211017021320 20 229 0.0 0.0 0.00 0.00 0.00 45 1011.8
20211017021220 20 229 0.0 0.0 0.00 0.00 0.00 45 1011.8
20211017021119 20 229 0.0 0.0 0.00 0.00 0.00 45 1011.8
20211017021023 20 229 0.0 0.0 0.00 0.00 0.00 45 1011.8
20211017020920 20 229 0.0 0.0 0.00 0.00 0.00 46 1011.8
20211017020820 20 229 0.0 0.0 0.00 0.00 0.00 45 1011.8
20211017020721 20 229 0.0 0.0 0.00 0.00 0.00 44 1011.8
20211017020650 20 229 0.0 0.0 0.00 0.00 0.00 43 1011.8
20211017020621 20 229 0.0 0.0 0.00 0.00 0.00 44 1011.8
20211017020516 20 229 0.0 0.0 0.00 0.00 0.00 43 1011.8
20211017020417 20 229 0.0 0.0 0.00 0.00 0.00 42 1011.8
20211017020315 20 229 0.0 0.0 0.00 0.00 0.00 42 1011.8
20211017020216 20 229 0.0 0.0 0.00 0.00 0.00 42 1011.8
20211017020150 20 229 0.0 0.0 0.00 0.00 0.00 42 1011.8
20211017020116 21 229 0.0 0.0 0.00 0.00 0.00 42 1011.8
20211017020017 21 229 0.0 0.0 0.00 0.00 0.00 40 1011.8
20211017015916 21 229 0.0 0.0 0.00 0.00 0.00 41 1011.8
20211017015819 21 229 0.0 0.0 0.00 0.00 0.00 41 1011.8
20211017015716 21 229 0.0 0.0 0.00 0.00 0.00 41 1011.8
20211017015650 21 229 0.0 0.0 0.00 0.00 0.00 41 1011.8
20211017015616 21 229 0.0 0.0 0.00 0.00 0.00 41 1011.8
20211017015516 21 229 0.0 0.0 0.00 0.00 0.00 41 1011.8
20211017015416 21 229 0.0 0.0 0.00 0.00 0.00 40 1011.8
20211017015317 21 229 0.0 0.0 0.00 0.00 0.00 40 1011.8
20211017015225 21 229 0.0 0.0 0.00 0.00 0.00 39 1011.8
20211017015150 21 229 0.0 0.0 0.00 0.00 0.00 39 1011.8
20211017015121 21 229 0.0 0.0 0.00 0.00 0.00 39 1011.7
20211017015015 21 229 0.0 0.0 0.00 0.00 0.00 38 1011.7
20211017014916 21 229 0.0 0.0 0.00 0.00 0.00 37 1011.7
20211017014816 22 229 0.0 0.0 0.00 0.00 0.00 37 1011.7
20211017014716 22 229 0.0 0.0 0.00 0.00 0.00 37 1011.7
20211017014650 22 229 0.0 0.0 0.00 0.00 0.00 37 1011.7
20211017014612 22 229 0.0 0.0 0.00 0.00 0.00 37 1011.7
20211017014517 22 229 0.0 0.0 0.00 0.00 0.00 38 1011.7
20211017014411 22 229 0.0 0.0 0.00 0.00 0.00 36 1011.7
20211017014312 22 229 0.0 0.0 0.00 0.00 0.00 36 1011.7
20211017014218 22 229 0.0 0.0 0.00 0.00 0.00 36 1011.8
20211017014154 22 229 0.0 0.0 0.00 0.00 0.00 36 1011.8
20211017014122 22 229 0.0 0.0 0.00 0.00 0.00 36 1011.8
20211017014011 23 229 0.0 0.0 0.00 0.00 0.00 36 1011.8
20211017013917 23 229 0.0 0.0 0.00 0.00 0.00 35 1011.7
20211017013812 23 229 0.0 0.0 0.00 0.00 0.00 34 1011.7
20211017013718 23 229 0.0 0.0 0.00 0.00 0.00 35 1011.7
20211017013649 23 229 0.0 0.0 0.00 0.00 0.00 35 1011.7
20211017013613 23 229 0.0 0.0 0.00 0.00 0.00 34 1011.7
20211017013512 23 229 0.0 0.0 0.00 0.00 0.00 34 1011.7
20211017013412 23 229 0.0 0.0 0.00 0.00 0.00 34 1011.8
20211017013312 23 229 0.0 0.0 0.00 0.00 0.00 34 1011.7
20211017013212 24 229 0.0 0.0 0.00 0.00 0.00 33 1011.7
20211017013145 24 229 0.0 1.6 0.00 0.00 0.00 33 1011.7
20211017013111 24 229 0.0 1.6 0.00 0.00 0.00 33 1011.7
20211017013018 24 229 0.0 1.6 0.00 0.00 0.00 32 1011.7
20211017012917 24 229 0.0 1.6 0.00 0.00 0.00 32 1011.8
20211017012812 24 229 0.0 1.6 0.00 0.00 0.00 32 1011.7
20211017012714 25 229 0.0 3.2 0.00 0.00 0.00 32 1011.7
20211017012645 25 229 0.0 3.2 0.00 0.00 0.00 31 1011.7
20211017012609 25 229 0.0 3.2 0.00 0.00 0.00 31 1011.7
20211017012510 25 229 1.6 3.2 0.00 0.00 0.00 31 1011.7
20211017012408 25 229 1.6 3.2 0.00 0.00 0.00 30 1011.7
20211017012308 25 229 1.6 3.2 0.00 0.00 0.00 30 1011.7
20211017012208 25 229 1.6 3.2 0.00 0.00 0.00 29 1011.7
20211017012145 25 229 1.6 3.2 0.00 0.00 0.00 30 1011.7
20211017012108 25 229 1.6 3.2 0.00 0.00 0.00 30 1011.7
20211017012024 25 231 1.6 3.2 0.00 0.00 0.00 29 1011.7
20211017011910 25 225 1.6 3.2 0.00 0.00 0.00 29 1011.7
20211017011809 25 225 1.6 3.2 0.00 0.00 0.00 30 1011.7
20211017011712 25 225 1.6 3.2 0.00 0.00 0.00 29 1011.7
20211017011646 25 225 1.6 3.2 0.00 0.00 0.00 30 1011.7
20211017011608 25 225 0.0 3.2 0.00 0.00 0.00 30 1011.7
20211017011515 25 236 0.0 3.2 0.00 0.00 0.00 30 1011.7
20211017011419 25 218 0.0 3.2 0.00 0.00 0.00 30 1011.7
20211017011313 25 218 0.0 3.2 0.00 0.00 0.00 30 1011.7
20211017011209 25 233 0.0 3.2 0.00 0.00 0.00 30 1011.7
20211017011147 25 233 0.0 3.2 0.00 0.00 0.00 30 1011.7
20211017011114 25 233 0.0 3.2 0.00 0.00 0.00 29 1011.7
20211017011015 25 233 0.0 3.2 0.00 0.00 0.00 29 1011.6
20211017010908 25 206 0.0 1.6 0.00 0.00 0.00 29 1011.6
20211017010805 25 203 0.0 1.6 0.00 0.00 0.00 29 1011.6
20211017010646 25 203 0.0 3.2 0.00 0.00 0.00 29 1011.6
20211017010604 26 203 0.0 3.2 0.00 0.00 0.00 29 1011.6
20211017010504 26 203 0.0 3.2 0.00 0.00 0.00 29 1011.6
20211017010411 26 203 0.0 3.2 0.00 0.00 0.00 29 1011.6
20211017010304 26 203 0.0 3.2 0.00 0.00 0.00 29 1011.6
20211017010145 26 203 0.0 3.2 0.00 0.00 0.00 29 1011.6
20211017010103 26 203 0.0 3.2 0.00 0.00 0.00 28 1011.6
20211017010013 26 203 0.0 3.2 0.00 0.00 0.00 28 1011.6
20211017005904 26 203 0.0 3.2 0.00 0.00 0.00 28 1011.6
20211017005803 26 203 0.0 3.2 0.00 0.00 0.00 28 1011.6
20211017005646 26 207 0.0 3.2 0.00 0.00 0.00 29 1011.7
20211017005604 26 207 1.6 3.2 0.00 0.00 0.00 28 1011.7
20211017005505 26 211 0.0 3.2 0.00 0.00 0.00 28 1011.6
20211017005403 26 233 0.0 3.2 0.00 0.00 0.00 28 1011.7
20211017005305 26 151 1.6 4.8 0.00 0.00 0.00 28 1011.7
20211017005205 26 143 1.6 4.8 0.00 0.00 0.00 28 1011.6
20211017005145 26 143 1.6 4.8 0.00 0.00 0.00 28 1011.7
20211017005104 26 143 1.6 4.8 0.00 0.00 0.00 28 1011.7
20211017005011 26 144 1.6 4.8 0.00 0.00 0.00 27 1011.6
20211017004900 26 143 1.6 4.8 0.00 0.00 0.00 28 1011.6
20211017004759 26 222 1.6 4.8 0.00 0.00 0.00 27 1011.7
20211017004700 26 222 1.6 4.8 0.00 0.00 0.00 27 1011.6
20211017004641 26 222 1.6 4.8 0.00 0.00 0.00 27 1011.7
20211017004600 26 236 1.6 4.8 0.00 0.00 0.00 28 1011.7
20211017004501 26 203 1.6 4.8 0.00 0.00 0.00 27 1011.7
20211017004400 26 222 1.6 4.8 0.00 0.00 0.00 27 1011.8
20211017004300 26 210 1.6 3.2 0.00 0.00 0.00 27 1011.8
20211017004201 26 219 1.6 3.2 0.00 0.00 0.00 27 1011.8
20211017004141 26 219 1.6 3.2 0.00 0.00 0.00 26 1011.8
20211017004100 27 228 1.6 3.2 0.00 0.00 0.00 26 1011.8
20211017004000 27 228 1.6 3.2 0.00 0.00 0.00 26 1011.8
20211017003900 27 229 1.6 3.2 0.00 0.00 0.00 26 1011.8
20211017003800 27 195 1.6 3.2 0.00 0.00 0.00 26 1011.8
20211017003642 27 200 1.6 3.2 0.00 0.00 0.00 26 1011.8
20211017003600 27 158 1.6 3.2 0.00 0.00 0.00 26 1011.8
20211017003500 27 139 1.6 3.2 0.00 0.00 0.00 25 1011.8
20211017003400 27 199 1.6 3.2 0.00 0.00 0.00 25 1011.8
20211017003300 27 210 1.6 3.2 0.00 0.00 0.00 25 1011.8
20211017003201 27 207 1.6 3.2 0.00 0.00 0.00 25 1011.8
20211017003141 27 200 1.6 3.2 0.00 0.00 0.00 25 1011.7
20211017003100 27 203 1.6 3.2 0.00 0.00 0.00 25 1011.7
20211017002957 27 224 1.6 4.8 0.00 0.00 0.00 25 1011.8
20211017002856 27 150 1.6 4.8 0.00 0.00 0.00 24 1011.8
20211017002756 27 158 1.6 4.8 0.00 0.00 0.00 25 1011.8
20211017002656 27 210 1.6 4.8 0.00 0.00 0.00 25 1011.8
20211017002642 27 141 1.6 4.8 0.00 0.00 0.00 25 1011.8
20211017002556 27 185 1.6 4.8 0.00 0.00 0.00 25 1011.8
20211017002456 27 200 1.6 4.8 0.00 0.00 0.00 25 1011.8
20211017002356 27 201 1.6 4.8 0.00 0.00 0.00 25 1011.9
20211017002256 27 201 1.6 4.8 0.00 0.00 0.00 24 1011.8
20211017002156 27 201 1.6 4.8 0.00 0.00 0.00 24 1011.8
20211017002141 27 210 1.6 4.8 0.00 0.00 0.00 24 1011.8
20211017002055 27 215 1.6 4.8 0.00 0.00 0.00 24 1011.8
20211017001956 28 203 1.6 4.8 0.00 0.00 0.00 24 1011.8
20211017001856 28 219 1.6 4.8 0.00 0.00 0.00 24 1011.8
20211017001756 28 217 1.6 8.0 0.00 0.00 0.00 24 1011.8
20211017001641 28 232 1.6 8.0 0.00 0.00 0.00 23 1011.8
20211017001556 28 232 3.2 8.0 0.00 0.00 0.00 23 1011.8
20211017001457 28 238 3.2 8.0 0.00 0.00 0.00 23 1011.9
20211017001357 28 238 1.6 8.0 0.00 0.00 0.00 23 1011.9
20211017001256 28 229 1.6 8.0 0.00 0.00 0.00 23 1011.9
20211017001156 28 218 3.2 8.0 0.00 0.00 0.00 23 1011.9
20211017001141 28 214 3.2 8.0 0.00 0.00 0.00 23 1011.9
20211017001051 28 210 3.2 8.0 0.00 0.00 0.00 23 1011.9
20211017000953 28 232 3.2 8.0 0.00 0.00 0.00 23 1011.9
20211017000853 28 221 3.2 8.0 0.00 0.00 0.00 23 1011.9
20211017000751 28 242 3.2 6.4 0.00 0.00 0.00 24 1011.9
20211017000641 28 222 1.6 6.4 0.00 0.00 0.00 24 1011.9
20211017000552 28 224 1.6 6.4 0.00 0.00 0.00 24 1011.9
20211017000453 28 224 1.6 6.4 0.00 0.00 0.00 24 1011.9
20211017000353 28 208 1.6 6.4 0.00 0.00 0.00 23 1011.9
20211017000252 28 158 1.6 6.4 0.00 0.00 0.00 23 1012.0
20211017000155 28 137 1.6 6.4 0.00 0.00 0.00 23 1012.0
20211017000137 28 141 1.6 6.4 0.00 0.00 0.00 23 1012.0
20211017000052 28 161 1.6 6.4 0.00 0.00 0.00 23 1012.0
20211016235952 28 211 1.6 6.4 0.00 0.00 0.00 23 1012.0
20211016235852 28 190 1.6 6.4 0.00 0.00 0.00 24 1012.0
20211016235808 28 185 1.6 6.4 0.00 0.00 0.00 24 1012.0
20211016235637 28 203 1.6 6.4 0.00 0.00 0.00 24 1012.0
20211016235558 28 204 1.6 6.4 0.00 0.00 0.00 23 1012.0
20211016235452 28 210 1.6 6.4 0.00 0.00 0.00 23 1012.1
20211016235407 28 228 1.6 6.4 0.00 0.00 0.00 22 1012.1
20211016235253 28 193 1.6 6.4 0.00 0.00 0.00 23 1012.1
20211016235148 28 200 1.6 6.4 0.00 0.00 0.00 23 1012.1
20211016235137 28 226 1.6 6.4 0.00 0.00 0.00 23 1012.1
20211016235048 28 211 1.6 6.4 0.00 0.00 0.00 25 1012.1
20211016234948 28 231 1.6 6.4 0.00 0.00 0.00 23 1012.1
20211016234848 28 234 1.6 6.4 0.00 0.00 0.00 23 1012.1
20211016234747 28 229 1.6 6.4 0.00 0.00 0.00 22 1012.1
20211016234648 28 190 1.6 6.4 0.00 0.00 0.00 22 1012.2
20211016234638 28 175 1.6 6.4 0.00 0.00 0.00 22 1012.1
20211016234548 28 158 1.6 6.4 0.00 0.00 0.00 23 1012.1
20211016234449 28 195 1.6 6.4 0.00 0.00 0.00 23 1012.1
20211016234348 28 197 1.6 6.4 0.00 0.00 0.00 22 1012.1
20211016234248 28 226 1.6 6.4 0.00 0.00 0.00 22 1012.1
20211016234147 28 220 1.6 6.4 0.00 0.00 0.00 22 1012.1
20211016234137 28 211 1.6 6.4 0.00 0.00 0.00 22 1012.1
20211016234049 28 224 1.6 6.4 0.00 0.00 0.00 22 1012.1
20211016233949 28 190 1.6 6.4 0.00 0.00 0.00 22 1012.1
20211016233848 28 238 1.6 6.4 0.00 0.00 0.00 22 1012.1
20211016233748 28 120 1.6 6.4 0.00 0.00 0.00 22 1012.2
20211016233647 28 191 1.6 6.4 0.00 0.00 0.00 23 1012.2
20211016233637 28 221 1.6 6.4 0.00 0.00 0.00 23 1012.2
20211016233548 28 166 1.6 6.4 0.00 0.00 0.00 24 1012.2
20211016233448 28 231 1.6 6.4 0.00 0.00 0.00 24 1012.2
20211016233348 28 215 1.6 6.4 0.00 0.00 0.00 24 1012.2
20211016233244 28 188 1.6 6.4 0.00 0.00 0.00 24 1012.2
20211016233202 28 188 1.6 6.4 0.00 0.00 0.00 24 1012.2
20211016233137 28 188 3.2 6.4 0.00 0.00 0.00 24 1012.2
20211016233044 28 169 3.2 6.4 0.00 0.00 0.00 23 1012.2
20211016232943 28 169 3.2 6.4 0.00 0.00 0.00 22 1012.2
20211016232843 28 215 1.6 4.8 0.00 0.00 0.00 22 1012.2
20211016232743 28 213 1.6 4.8 0.00 0.00 0.00 22 1012.2
20211016232637 28 94 1.6 4.8 0.00 0.00 0.00 22 1012.3
20211016232544 28 94 1.6 4.8 0.00 0.00 0.00 21 1012.3
20211016232444 28 94 1.6 4.8 0.00 0.00 0.00 21 1012.3
20211016232343 29 115 1.6 4.8 0.00 0.00 0.00 21 1012.3
20211016232244 29 142 1.6 4.8 0.00 0.00 0.00 21 1012.3
20211016232147 29 140 1.6 8.0 0.00 0.00 0.00 21 1012.3
20211016232137 29 141 1.6 8.0 0.00 0.00 0.00 21 1012.3
20211016232043 29 138 1.6 8.0 0.00 0.00 0.00 21 1012.3
20211016231943 29 149 1.6 8.0 0.00 0.00 0.00 22 1012.3
20211016231844 29 177 1.6 8.0 0.00 0.00 0.00 23 1012.4
20211016231744 29 180 1.6 8.0 0.00 0.00 0.00 23 1012.3
20211016231633 29 179 1.6 8.0 0.00 0.00 0.00 22 1012.4
20211016231543 29 184 1.6 8.0 0.00 0.00 0.00 22 1012.4
20211016231445 28 225 3.2 8.0 0.00 0.00 0.00 23 1012.4
20211016231339 28 171 3.2 8.0 0.00 0.00 0.00 22 1012.4
20211016231240 28 122 3.2 8.0 0.00 0.00 0.00 22 1012.4
20211016231143 28 176 3.2 8.0 0.00 0.00 0.00 23 1012.4
20211016231133 28 167 3.2 8.0 0.00 0.00 0.00 23 1012.4
20211016231041 28 135 3.2 8.0 0.00 0.00 0.00 23 1012.4
20211016230940 28 132 3.2 8.0 0.00 0.00 0.00 23 1012.5
20211016230842 28 144 3.2 8.0 0.00 0.00 0.00 22 1012.5
20211016230741 28 138 3.2 8.0 0.00 0.00 0.00 21 1012.5
20211016230633 28 145 1.6 8.0 0.00 0.00 0.00 21 1012.5
20211016230543 28 113 1.6 6.4 0.00 0.00 0.00 22 1012.5
20211016230439 28 138 1.6 6.4 0.00 0.00 0.00 22 1012.5
20211016230339 28 115 1.6 6.4 0.00 0.00 0.00 21 1012.5
20211016230239 28 145 1.6 6.4 0.00 0.00 0.00 22 1012.5
20211016230144 28 131 0.0 6.4 0.00 0.00 0.00 22 1012.5
20211016230133 28 122 0.0 6.4 0.00 0.00 0.00 22 1012.5
20211016230040 28 112 0.0 6.4 0.00 0.00 0.00 23 1012.5
20211016225940 28 167 0.0 1.6 0.00 0.00 0.00 22 1012.5
20211016225840 28 210 0.0 6.4 0.00 0.00 0.00 23 1012.5
20211016225740 28 44 0.0 6.4 0.00 0.00 0.00 23 1012.5
20211016225633 28 44 1.6 6.4 0.00 0.00 0.00 23 1012.5
20211016225543 28 44 1.6 6.4 0.00 0.00 0.00 23 1012.6
20211016225437 28 44 1.6 6.4 0.00 0.00 0.00 23 1012.5
20211016225336 28 44 1.6 6.4 0.00 0.00 0.00 23 1012.5
20211016225236 28 44 1.6 6.4 0.00 0.00 0.00 24 1012.5
20211016225139 28 44 1.6 6.4 0.00 0.00 0.00 24 1012.6
20211016225036 28 44 1.6 6.4 0.00 0.00 0.00 24 1012.6
20211016224936 28 44 1.6 6.4 0.00 0.00 0.00 23 1012.6
20211016224836 28 141 1.6 6.4 0.00 0.00 0.00 23 1012.6
20211016224736 28 142 1.6 6.4 0.00 0.00 0.00 23 1012.6
20211016224638 28 105 1.6 6.4 0.00 0.00 0.00 23 1012.6
20211016224537 28 78 1.6 6.4 0.00 0.00 0.00 22 1012.7
20211016224436 28 78 1.6 6.4 0.00 0.00 0.00 23 1012.7
20211016224336 28 113 1.6 4.8 0.00 0.00 0.00 23 1012.7
20211016224236 28 120 0.0 4.8 0.00 0.00 0.00 22 1012.7
20211016224137 28 124 0.0 3.2 0.00 0.00 0.00 22 1012.7
20211016224036 28 125 0.0 3.2 0.00 0.00 0.00 22 1012.7
20211016223937 28 126 0.0 3.2 0.00 0.00 0.00 23 1012.7
20211016223836 28 141 0.0 3.2 0.00 0.00 0.00 23 1012.7
20211016223736 28 142 0.0 3.2 0.00 0.00 0.00 23 1012.7
20211016223637 28 142 1.6 4.8 0.00 0.00 0.00 23 1012.7
20211016223531 28 142 1.6 8.0 0.00 0.00 0.00 23 1012.7
20211016223431 28 142 1.6 8.0 0.00 0.00 0.00 22 1012.7
20211016223331 28 131 1.6 8.0 0.00 0.00 0.00 22 1012.7
20211016223232 28 131 3.2 8.0 0.00 0.00 0.00 22 1012.7
20211016223135 28 131 3.2 8.0 0.00 0.00 0.00 22 1012.7
20211016223034 28 131 3.2 8.0 0.00 0.00 0.00 22 1012.7
20211016222933 28 131 3.2 8.0 0.00 0.00 0.00 22 1012.7
20211016222832 28 139 3.2 8.0 0.00 0.00 0.00 22 1012.8
20211016222731 28 128 3.2 8.0 0.00 0.00 0.00 22 1012.7
20211016222633 28 128 3.2 8.0 0.00 0.00 0.00 22 1012.7
20211016222532 28 140 3.2 8.0 0.00 0.00 0.00 22 1012.8
20211016222431 28 139 3.2 8.0 0.00 0.00 0.00 22 1012.8
20211016222331 28 158 1.6 8.0 0.00 0.00 0.00 22 1012.8
20211016222231 28 138 1.6 8.0 0.00 0.00 0.00 22 1012.8
20211016222134 28 125 1.6 8.0 0.00 0.00 0.00 22 1012.8
20211016222032 28 133 1.6 8.0 0.00 0.00 0.00 23 1012.8
20211016221932 28 122 1.6 8.0 0.00 0.00 0.00 22 1012.8
20211016221833 28 113 1.6 6.4 0.00 0.00 0.00 23 1012.8
20211016221733 28 221 1.6 6.4 0.00 0.00 0.00 23 1012.8
20211016221628 28 203 1.6 6.4 0.00 0.00 0.00 22 1012.8
20211016221528 28 132 1.6 6.4 0.00 0.00 0.00 22 1012.8
20211016221429 28 129 3.2 6.4 0.00 0.00 0.00 23 1012.8
20211016221328 28 131 3.2 6.4 0.00 0.00 0.00 23 1012.8
20211016221228 28 137 3.2 6.4 0.00 0.00 0.00 23 1012.8
20211016221128 28 136 3.2 6.4 0.00 0.00 0.00 22 1012.8
20211016221028 28 138 3.2 6.4 0.00 0.00 0.00 22 1012.8
20211016220928 28 82 3.2 6.4 0.00 0.00 0.00 22 1012.9
20211016220828 28 131 1.6 6.4 0.00 0.00 0.00 22 1012.9
20211016220728 28 134 1.6 6.4 0.00 0.00 0.00 22 1012.9
20211016220628 28 145 1.6 6.4 0.00 0.00 0.00 23 1012.8
20211016220527 28 131 1.6 6.4 0.00 0.00 0.00 23 1012.8
20211016220428 28 130 1.6 6.4 0.00 0.00 0.00 23 1012.9
20211016220329 28 150 0.0 3.2 0.00 0.00 0.00 23 1012.9
20211016220228 28 217 0.0 3.2 0.00 0.00 0.00 23 1012.9
20211016220135 28 168 0.0 3.2 0.00 0.00 0.00 23 1012.9
20211016220128 28 167 0.0 3.2 0.00 0.00 0.00 23 1012.9
20211016220035 28 200 0.0 3.2 0.00 0.00 0.00 24 1012.9
20211016215927 28 322 0.0 3.2 0.00 0.00 0.00 25 1012.9
20211016215828 28 319 0.0 1.6 0.00 0.00 0.00 24 1013.0
20211016215724 28 319 0.0 1.6 0.00 0.00 0.00 24 1013.0
20211016215624 28 319 0.0 1.6 0.00 0.00 0.00 24 1013.0
20211016215524 28 319 0.0 1.6 0.00 0.00 0.00 24 1013.0
20211016215424 28 319 0.0 1.6 0.00 0.00 0.00 24 1013.0
20211016215324 28 319 0.0 1.6 0.00 0.00 0.00 25 1013.0
20211016215223 28 319 0.0 1.6 0.00 0.00 0.00 24 1013.0
20211016215130 28 326 0.0 1.6 0.00 0.00 0.00 25 1013.0
20211016215124 28 352 0.0 1.6 0.00 0.00 0.00 25 1013.0
20211016215024 28 25 0.0 1.6 0.00 0.00 0.00 24 1013.0
20211016214924 28 350 0.0 1.6 0.00 0.00 0.00 25 1013.1
20211016214824 28 350 0.0 1.6 0.00 0.00 0.00 24 1013.1
20211016214724 28 350 0.0 1.6 0.00 0.00 0.00 23 1013.1
20211016214629 28 69 0.0 1.6 0.00 0.00 0.00 23 1013.1
20211016214623 28 70 0.0 1.6 0.00 0.00 0.00 23 1013.1
20211016214524 28 133 0.0 3.2 0.00 0.00 0.00 24 1013.2
20211016214425 28 132 0.0 3.2 0.00 0.00 0.00 24 1013.2
20211016214325 28 132 1.6 3.2 0.00 0.00 0.00 24 1013.2
20211016214224 28 133 1.6 3.2 0.00 0.00 0.00 24 1013.3
20211016214124 28 197 1.6 3.2 0.00 0.00 0.00 24 1013.3
20211016214025 27 197 1.6 4.8 0.00 0.00 0.00 24 1013.3
20211016213924 27 197 1.6 6.4 0.00 0.00 0.00 23 1013.3
20211016213819 27 195 3.2 8.0 0.00 0.00 0.00 23 1013.4
20211016213719 27 195 3.2 8.0 0.00 0.00 0.00 24 1013.4
20211016213620 27 195 3.2 8.0 0.00 0.00 0.00 24 1013.4
20211016213523 27 208 3.2 8.0 0.00 0.00 0.00 24 1013.4
20211016213420 27 206 3.2 8.0 0.00 0.00 0.00 23 1013.4
20211016213320 27 215 3.2 8.0 0.00 0.00 0.00 24 1013.4
20211016213220 27 139 3.2 8.0 0.00 0.00 0.00 24 1013.4
20211016213126 27 129 3.2 8.0 0.00 0.00 0.00 23 1013.4
20211016213120 27 91 3.2 8.0 0.00 0.00 0.00 23 1013.4
20211016213020 28 94 3.2 8.0 0.00 0.00 0.00 23 1013.4
20211016212920 28 131 1.6 8.0 0.00 0.00 0.00 23 1013.4
20211016212820 28 124 1.6 6.4 0.00 0.00 0.00 24 1013.4
20211016212719 28 203 1.6 6.4 0.00 0.00 0.00 24 1013.4
20211016212626 28 215 1.6 6.4 0.00 0.00 0.00 23 1013.4
20211016212620 28 198 1.6 6.4 0.00 0.00 0.00 23 1013.4
20211016212524 28 132 1.6 6.4 0.00 0.00 0.00 23 1013.4
20211016212423 28 138 1.6 6.4 0.00 0.00 0.00 24 1013.4
20211016212320 28 143 1.6 4.8 0.00 0.00 0.00 24 1013.5
20211016212219 28 108 1.6 4.8 0.00 0.00 0.00 24 1013.5
20211016212126 28 153 1.6 4.8 0.00 0.00 0.00 25 1013.5
20211016212120 28 154 1.6 4.8 0.00 0.00 0.00 25 1013.5
20211016212021 27 153 1.6 4.8 0.00 0.00 0.00 24 1013.5
20211016211917 27 208 1.6 4.8 0.00 0.00 0.00 25 1013.6
20211016211817 27 197 1.6 4.8 0.00 0.00 0.00 24 1013.6
20211016211716 27 197 1.6 4.8 0.00 0.00 0.00 24 1013.6
20211016211625 27 177 1.6 4.8 0.00 0.00 0.00 24 1013.6
20211016211615 27 162 1.6 4.8 0.00 0.00 0.00 24 1013.6
20211016211516 27 207 1.6 4.8 0.00 0.00 0.00 25 1013.7
20211016211416 27 228 1.6 4.8 0.00 0.00 0.00 25 1013.6
20211016211316 27 207 1.6 4.8 0.00 0.00 0.00 25 1013.7
20211016211215 27 186 1.6 4.8 0.00 0.00 0.00 25 1013.7
20211016211125 27 164 1.6 4.8 0.00 0.00 0.00 25 1013.7
20211016211115 27 144 1.6 4.8 0.00 0.00 0.00 25 1013.7
20211016211015 27 204 1.6 4.8 0.00 0.00 0.00 24 1013.7
20211016210916 27 204 1.6 3.2 0.00 0.00 0.00 25 1013.7
20211016210816 27 304 1.6 3.2 0.00 0.00 0.00 25 1013.8
20211016210716 27 304 1.6 3.2 0.00 0.00 0.00 24 1013.8
20211016210616 27 307 0.0 3.2 0.00 0.00 0.00 24 1013.8
20211016210517 27 291 0.0 1.6 0.00 0.00 0.00 25 1013.8
20211016210416 27 291 0.0 1.6 0.00 0.00 0.00 24 1013.8
20211016210316 27 290 0.0 1.6 0.00 0.00 0.00 24 1013.8
20211016210215 28 289 0.0 1.6 0.00 0.00 0.00 25 1013.8
20211016210116 28 290 0.0 1.6 0.00 0.00 0.00 26 1013.9
20211016210012 28 290 0.0 1.6 0.00 0.00 0.00 25 1013.9
20211016205911 28 133 0.0 1.6 0.00 0.00 0.00 25 1013.9
20211016205811 28 132 0.0 3.2 0.00 0.00 0.00 25 1013.9
20211016205725 28 132 0.0 3.2 0.00 0.00 0.00 25 1013.9
20211016205621 28 132 1.6 3.2 0.00 0.00 0.00 25 1013.9
20211016205612 28 133 1.6 3.2 0.00 0.00 0.00 26 1013.9
20211016205513 28 132 1.6 4.8 0.00 0.00 0.00 25 1014.0
20211016205412 28 133 1.6 4.8 0.00 0.00 0.00 24 1014.0
20211016205311 27 132 1.6 4.8 0.00 0.00 0.00 25 1014.0
20211016205211 27 133 1.6 4.8 0.00 0.00 0.00 26 1014.0
20211016205112 27 133 1.6 8.0 0.00 0.00 0.00 24 1014.1
20211016205012 27 135 1.6 8.0 0.00 0.00 0.00 25 1014.1
20211016204911 27 128 1.6 8.0 0.00 0.00 0.00 25 1014.1
20211016204811 27 129 1.6 8.0 0.00 0.00 0.00 24 1014.1
20211016204713 27 127 3.2 8.0 0.00 0.00 0.00 24 1014.2
20211016204621 27 197 3.2 8.0 0.00 0.00 0.00 25 1014.2
20211016204612 27 193 3.2 8.0 0.00 0.00 0.00 25 1014.2
20211016204511 27 236 1.6 8.0 0.00 0.00 0.00 26 1014.2
20211016204411 27 210 1.6 8.0 0.00 0.00 0.00 27 1014.2
20211016204312 27 228 1.6 8.0 0.00 0.00 0.00 26 1014.3
20211016204212 27 186 1.6 8.0 0.00 0.00 0.00 26 1014.3
20211016204107 27 219 1.6 6.4 0.00 0.00 0.00 26 1014.3
20211016204007 27 235 1.6 6.4 0.00 0.00 0.00 25 1014.3
20211016203907 27 153 1.6 6.4 0.00 0.00 0.00 26 1014.3
20211016203808 27 143 1.6 4.8 0.00 0.00 0.00 26 1014.3
20211016203708 27 131 1.6 4.8 0.00 0.00 0.00 27 1014.3
20211016203621 27 150 1.6 4.8 0.00 0.00 0.00 27 1014.4
20211016203608 27 125 1.6 4.8 0.00 0.00 0.00 27 1014.4
20211016203510 27 124 1.6 4.8 0.00 0.00 0.00 27 1014.4
20211016203407 27 124 0.0 4.8 0.00 0.00 0.00 28 1014.5
20211016203307 26 124 0.0 4.8 0.00 0.00 0.00 27 1014.5
20211016203208 26 275 0.0 4.8 0.00 0.00 0.00 27 1014.5
20211016203108 26 274 0.0 4.8 0.00 0.00 0.00 28 1014.5
20211016203008 26 256 0.0 4.8 0.00 0.00 0.00 28 1014.6
20211016202908 26 254 0.0 4.8 0.00 0.00 0.00 28 1014.6
20211016202807 26 232 0.0 4.8 0.00 0.00 0.00 28 1014.6
20211016202709 26 159 0.0 4.8 0.00 0.00 0.00 29 1014.7
20211016202608 26 319 0.0 3.2 0.00 0.00 0.00 30 1014.7
20211016202507 26 319 0.0 3.2 0.00 0.00 0.00 30 1014.7
20211016202410 26 319 0.0 3.2 0.00 0.00 0.00 30 1014.7
20211016202308 26 319 0.0 3.2 0.00 0.00 0.00 29 1014.8
20211016202204 26 319 0.0 3.2 0.00 0.00 0.00 29 1014.8
20211016202121 26 319 1.6 3.2 0.00 0.00 0.00 29 1014.9
20211016202104 26 319 1.6 3.2 0.00 0.00 0.00 29 1014.9
20211016202009 26 319 1.6 3.2 0.00 0.00 0.00 30 1014.9
20211016201904 26 320 1.6 3.2 0.00 0.00 0.00 30 1014.8
20211016201804 26 322 1.6 6.4 0.00 0.00 0.00 30 1014.9
20211016201704 26 322 1.6 6.4 0.00 0.00 0.00 29 1014.9
20211016201617 26 257 1.6 6.4 0.00 0.00 0.00 30 1014.9
20211016201604 26 257 1.6 6.4 0.00 0.00 0.00 30 1014.9
20211016201503 26 257 1.6 6.4 0.00 0.00 0.00 30 1015.0
20211016201404 26 245 1.6 6.4 0.00 0.00 0.00 30 1014.9
20211016201304 26 245 1.6 6.4 0.00 0.00 0.00 30 1014.9
20211016201204 26 245 1.6 6.4 0.00 0.00 0.00 30 1015.0
20211016201117 26 242 1.6 6.4 0.00 0.00 0.00 30 1015.0
20211016201104 26 242 1.6 6.4 0.00 0.00 0.00 30 1015.0
20211016201009 26 217 1.6 6.4 0.00 0.00 0.00 29 1015.0
20211016200904 25 226 1.6 6.4 0.00 0.00 0.00 30 1015.0
20211016200803 25 177 1.6 6.4 0.00 0.00 0.00 29 1015.0
20211016200705 25 173 1.6 6.4 0.00 0.00 0.00 29 1015.1
20211016200618 25 193 1.6 6.4 0.00 0.00 0.00 30 1015.1
20211016200604 25 200 1.6 4.8 0.00 0.00 0.00 30 1015.1
20211016200507 25 311 1.6 4.8 0.00 0.00 0.00 29 1015.1
20211016200404 25 315 1.6 4.8 0.00 0.00 0.00 31 1015.1
20211016200259 25 228 1.6 4.8 0.00 0.00 0.00 31 1015.1
20211016200200 25 225 1.6 4.8 0.00 0.00 0.00 32 1015.1
20211016200117 25 221 1.6 6.4 0.00 0.00 0.00 31 1015.2
20211016200100 25 219 1.6 6.4 0.00 0.00 0.00 31 1015.2
20211016195959 25 222 1.6 6.4 0.00 0.00 0.00 32 1015.2
20211016195900 25 214 1.6 6.4 0.00 0.00 0.00 31 1015.2
20211016195800 25 289 1.6 6.4 0.00 0.00 0.00 31 1015.2
20211016195700 25 319 1.6 6.4 0.00 0.00 0.00 31 1015.2
20211016195617 25 273 1.6 6.4 0.00 0.00 0.00 31 1015.2
20211016195600 25 124 1.6 6.4 0.00 0.00 0.00 31 1015.2
20211016195500 25 124 1.6 6.4 0.00 0.00 0.00 31 1015.2
20211016195359 25 120 1.6 6.4 0.00 0.00 0.00 31 1015.3
20211016195300 25 136 1.6 6.4 0.00 0.00 0.00 31 1015.2
20211016195200 25 301 1.6 6.4 0.00 0.00 0.00 30 1015.3
20211016195117 25 300 1.6 8.0 0.00 0.00 0.00 30 1015.2
20211016195100 25 300 1.6 8.0 0.00 0.00 0.00 30 1015.2
20211016195000 25 316 1.6 8.0 0.00 0.00 0.00 30 1015.3
20211016194859 25 297 3.2 8.0 0.00 0.00 0.00 31 1015.3
20211016194800 25 297 3.2 8.0 0.00 0.00 0.00 30 1015.3
20211016194700 26 316 3.2 8.0 0.00 0.00 0.00 30 1015.3
20211016194617 26 359 3.2 8.0 0.00 0.00 0.00 30 1015.4
20211016194559 26 359 3.2 8.0 0.00 0.00 0.00 31 1015.4
20211016194514 26 267 3.2 8.0 0.00 0.00 0.00 31 1015.4
20211016194401 26 218 3.2 8.0 0.00 0.00 0.00 30 1015.4
20211016194256 26 134 1.6 8.0 0.00 0.00 0.00 30 1015.4
20211016194157 26 198 1.6 8.0 0.00 0.00 0.00 30 1015.5
20211016194117 26 197 1.6 8.0 0.00 0.00 0.00 30 1015.5
20211016194106 26 141 1.6 4.8 0.00 0.00 0.00 29 1015.5
20211016193957 25 123 1.6 4.8 0.00 0.00 0.00 29 1015.5
20211016193907 25 124 1.6 4.8 0.00 0.00 0.00 30 1015.5
20211016193759 25 161 1.6 4.8 0.00 0.00 0.00 31 1015.5
20211016193656 25 177 1.6 4.8 0.00 0.00 0.00 31 1015.5
20211016193620 25 207 1.6 4.8 0.00 0.00 0.00 32 1015.6
20211016193615 25 162 1.6 4.8 0.00 0.00 0.00 31 1015.6
20211016193456 25 314 1.6 4.8 0.00 0.00 0.00 31 1015.6
20211016193355 25 275 1.6 4.8 0.00 0.00 0.00 31 1015.5
20211016193257 25 146 1.6 4.8 0.00 0.00 0.00 32 1015.6
20211016193200 25 146 1.6 4.8 0.00 0.00 0.00 32 1015.6
20211016193113 25 147 1.6 4.8 0.00 0.00 0.00 32 1015.6
20211016193056 25 146 1.6 4.8 0.00 0.00 0.00 32 1015.6
20211016192956 25 80 1.6 4.8 0.00 0.00 0.00 31 1015.6
20211016192859 25 179 0.0 4.8 0.00 0.00 0.00 32 1015.7
20211016192756 25 200 1.6 4.8 0.00 0.00 0.00 31 1015.7
20211016192656 25 214 0.0 4.8 0.00 0.00 0.00 32 1015.7
20211016192613 24 133 0.0 4.8 0.00 0.00 0.00 32 1015.7
20211016192559 24 133 0.0 4.8 0.00 0.00 0.00 32 1015.7
20211016192452 24 257 1.6 4.8 0.00 0.00 0.00 32 1015.7
20211016192352 24 215 1.6 3.2 0.00 0.00 0.00 33 1015.8
20211016192252 24 197 1.6 6.4 0.00 0.00 0.00 32 1015.7
20211016192152 24 194 1.6 6.4 0.00 0.00 0.00 31 1015.8
20211016192113 24 158 1.6 6.4 0.00 0.00 0.00 32 1015.8
20211016192058 24 302 1.6 6.4 0.00 0.00 0.00 32 1015.8
20211016191951 24 302 1.6 6.4 0.00 0.00 0.00 32 1015.8
20211016191852 24 302 1.6 6.4 0.00 0.00 0.00 33 1015.8
20211016191752 24 222 1.6 6.4 0.00 0.00 0.00 32 1015.8
20211016191652 24 313 1.6 6.4 0.00 0.00 0.00 32 1015.9
20211016191614 24 316 1.6 6.4 0.00 0.00 0.00 32 1015.8
20211016191552 24 316 1.6 6.4 0.00 0.00 0.00 32 1015.8
20211016191452 24 297 0.0 6.4 0.00 0.00 0.00 32 1015.9
20211016191351 24 305 0.0 6.4 0.00 0.00 0.00 31 1015.9
20211016191255 24 264 0.0 3.2 0.00 0.00 0.00 32 1015.9
20211016191152 23 198 0.0 3.2 0.00 0.00 0.00 32 1015.9
20211016191114 23 168 0.0 3.2 0.00 0.00 0.00 32 1015.9
20211016191059 23 151 0.0 3.2 0.00 0.00 0.00 32 1015.9
20211016190952 23 260 0.0 3.2 0.00 0.00 0.00 33 1015.9
20211016190851 23 259 1.6 4.8 0.00 0.00 0.00 35 1015.9
20211016190751 23 259 1.6 4.8 0.00 0.00 0.00 35 1015.9
20211016190652 23 141 1.6 4.8 0.00 0.00 0.00 34 1015.9
20211016190613 23 214 1.6 4.8 0.00 0.00 0.00 34 1015.9
20211016190547 23 217 1.6 4.8 0.00 0.00 0.00 34 1015.9
20211016190448 23 294 1.6 4.8 0.00 0.00 0.00 33 1015.9
20211016190348 23 293 1.6 4.8 0.00 0.00 0.00 33 1015.9
20211016190248 23 307 1.6 4.8 0.00 0.00 0.00 33 1015.9
20211016190118 23 309 1.6 4.8 0.00 0.00 0.00 33 1015.9
20211016190048 23 309 1.6 4.8 0.00 0.00 0.00 33 1015.9
20211016185948 23 307 1.6 4.8 0.00 0.00 0.00 32 1015.9
20211016185847 23 300 0.0 4.8 0.00 0.00 0.00 33 1015.9
20211016185747 23 335 0.0 4.8 0.00 0.00 0.00 33 1015.9
20211016185647 23 264 0.0 4.8 0.00 0.00 0.00 33 1015.9
20211016185612 23 264 1.6 4.8 0.00 0.00 0.00 34 1015.9
20211016185547 23 174 1.6 4.8 0.00 0.00 0.00 34 1015.9
20211016185448 23 153 1.6 4.8 0.00 0.00 0.00 33 1015.9
20211016185349 23 153 1.6 4.8 0.00 0.00 0.00 35 1016.0
20211016185248 23 141 1.6 4.8 0.00 0.00 0.00 33 1016.0
20211016185148 23 198 1.6 4.8 0.00 0.00 0.00 35 1016.0
20211016185113 23 311 1.6 4.8 0.00 0.00 0.00 33 1016.0
20211016185048 23 312 1.6 4.8 0.00 0.00 0.00 33 1016.0
20211016184948 23 312 1.6 4.8 0.00 0.00 0.00 34 1016.0
20211016184847 23 312 1.6 4.8 0.00 0.00 0.00 33 1016.0
20211016184748 23 312 1.6 4.8 0.00 0.00 0.00 33 1016.1
20211016184644 23 312 1.6 4.8 0.00 0.00 0.00 32 1016.1
20211016184609 23 315 1.6 4.8 0.00 0.00 0.00 34 1016.1
20211016184544 23 255 1.6 4.8 0.00 0.00 0.00 34 1016.1
20211016184443 23 211 1.6 4.8 0.00 0.00 0.00 33 1016.1
20211016184344 23 203 1.6 4.8 0.00 0.00 0.00 33 1016.1
20211016184243 22 183 1.6 6.4 0.00 0.00 0.00 34 1016.1
20211016184144 22 113 1.6 6.4 0.00 0.00 0.00 33 1016.1
20211016184109 22 280 1.6 6.4 0.00 0.00 0.00 33 1016.1
20211016184044 22 280 1.6 6.4 0.00 0.00 0.00 33 1016.2
20211016183944 22 280 1.6 6.4 0.00 0.00 0.00 33 1016.2
20211016183844 23 280 1.6 6.4 0.00 0.00 0.00 32 1016.2
20211016183744 23 280 1.6 6.4 0.00 0.00 0.00 32 1016.2
20211016183643 23 280 1.6 6.4 0.00 0.00 0.00 32 1016.2
20211016183609 23 260 1.6 6.4 0.00 0.00 0.00 33 1016.2
20211016183544 23 260 1.6 6.4 0.00 0.00 0.00 33 1016.2
20211016183444 23 203 0.0 6.4 0.00 0.00 0.00 32 1016.2
20211016183344 23 197 0.0 6.4 0.00 0.00 0.00 33 1016.3
20211016183244 23 304 0.0 4.8 0.00 0.00 0.00 32 1016.3
20211016183144 23 304 0.0 3.2 0.00 0.00 0.00 34 1016.3
20211016183110 23 160 0.0 3.2 0.00 0.00 0.00 34 1016.3
20211016183045 23 160 0.0 3.2 0.00 0.00 0.00 34 1016.4
20211016182944 23 160 0.0 4.8 0.00 0.00 0.00 34 1016.4
20211016182844 23 210 1.6 6.4 0.00 0.00 0.00 34 1016.4
20211016182739 22 219 1.6 8.0 0.00 0.00 0.00 32 1016.4
20211016182640 22 218 3.2 8.0 0.00 0.00 0.00 32 1016.5
20211016182609 22 217 3.2 8.0 0.00 0.00 0.00 32 1016.5
20211016182545 22 217 3.2 8.0 0.00 0.00 0.00 32 1016.5
20211016182440 22 217 3.2 9.7 0.00 0.00 0.00 33 1016.5
20211016182340 22 217 3.2 9.7 0.00 0.00 0.00 32 1016.5
20211016182239 22 217 3.2 9.7 0.00 0.00 0.00 33 1016.6
20211016182140 22 207 3.2 9.7 0.00 0.00 0.00 32 1016.6
20211016182109 22 219 3.2 9.7 0.00 0.00 0.00 32 1016.6
20211016182040 22 124 3.2 9.7 0.00 0.00 0.00 31 1016.6
20211016181940 22 235 1.6 9.7 0.00 0.00 0.00 32 1016.6
20211016181839 22 185 1.6 9.7 0.00 0.00 0.00 33 1016.6
20211016181739 22 129 1.6 9.7 0.00 0.00 0.00 33 1016.7
20211016181639 22 126 1.6 9.7 0.00 0.00 0.00 33 1016.7
20211016181609 22 127 1.6 9.7 0.00 0.00 0.00 33 1016.7
20211016181543 22 225 1.6 9.7 0.00 0.00 0.00 33 1016.7
20211016181440 22 205 0.0 6.4 0.00 0.00 0.00 35 1016.7
20211016181340 22 201 0.0 3.2 0.00 0.00 0.00 34 1016.7
20211016181239 22 281 0.0 3.2 0.00 0.00 0.00 34 1016.7
20211016181140 22 281 0.0 3.2 0.00 0.00 0.00 34 1016.7
20211016181109 22 257 0.0 3.2 0.00 0.00 0.00 34 1016.7
20211016181039 22 226 0.0 3.2 0.00 0.00 0.00 34 1016.6
20211016180940 22 96 0.0 3.2 0.00 0.00 0.00 33 1016.6
20211016180836 22 108 0.0 3.2 0.00 0.00 0.00 34 1016.7
20211016180737 22 194 0.0 3.2 0.00 0.00 0.00 34 1016.7
20211016180636 21 150 0.0 3.2 0.00 0.00 0.00 34 1016.7
20211016180610 21 193 0.0 3.2 0.00 0.00 0.00 36 1016.7
20211016180536 21 185 0.0 1.6 0.00 0.00 0.00 36 1016.7
20211016180436 21 263 0.0 1.6 0.00 0.00 0.00 36 1016.7
20211016180336 21 263 0.0 3.2 0.00 0.00 0.00 37 1016.7
20211016180237 21 263 0.0 3.2 0.00 0.00 0.00 36 1016.6
20211016180112 21 263 0.0 3.2 0.00 0.00 0.00 36 1016.7
20211016180036 21 263 0.0 3.2 0.00 0.00 0.00 36 1016.7
20211016175936 21 263 0.0 3.2 0.00 0.00 0.00 36 1016.7
20211016175835 21 245 0.0 3.2 0.00 0.00 0.00 36 1016.6
20211016175738 21 162 1.6 3.2 0.00 0.00 0.00 35 1016.6
20211016175635 21 162 1.6 4.8 0.00 0.00 0.00 35 1016.6
20211016175607 21 114 1.6 4.8 0.00 0.00 0.00 35 1016.6
20211016175536 21 114 1.6 4.8 0.00 0.00 0.00 34 1016.7
20211016175435 21 131 1.6 4.8 0.00 0.00 0.00 35 1016.7
20211016175335 21 120 1.6 4.8 0.00 0.00 0.00 34 1016.7
20211016175235 21 163 1.6 6.4 0.00 0.00 0.00 35 1016.7
20211016175137 21 206 1.6 6.4 0.00 0.00 0.00 36 1016.8
20211016175106 21 207 1.6 6.4 0.00 0.00 0.00 36 1016.8
20211016175036 21 197 3.2 6.4 0.00 0.00 0.00 35 1016.8
20211016174932 21 212 3.2 6.4 0.00 0.00 0.00 35 1016.8
20211016174832 21 201 3.2 6.4 0.00 0.00 0.00 35 1016.9
20211016174732 21 163 3.2 6.4 0.00 0.00 0.00 34 1016.9
20211016174632 21 150 1.6 6.4 0.00 0.00 0.00 35 1016.9
20211016174607 21 207 1.6 6.4 0.00 0.00 0.00 35 1016.9
20211016174532 21 201 1.6 6.4 0.00 0.00 0.00 36 1016.9
20211016174432 21 181 1.6 6.4 0.00 0.00 0.00 36 1017.0
20211016174332 21 143 1.6 6.4 0.00 0.00 0.00 36 1017.0
20211016174231 21 229 1.6 6.4 0.00 0.00 0.00 37 1017.0
20211016174110 21 231 1.6 6.4 0.00 0.00 0.00 36 1017.0
20211016174032 21 298 1.6 6.4 0.00 0.00 0.00 36 1017.0
20211016173932 21 200 0.0 6.4 0.00 0.00 0.00 37 1017.0
20211016173832 20 183 0.0 3.2 0.00 0.00 0.00 38 1017.0
20211016173732 20 163 0.0 3.2 0.00 0.00 0.00 37 1017.0
20211016173632 20 205 0.0 3.2 0.00 0.00 0.00 37 1017.0
20211016173606 20 218 0.0 3.2 0.00 0.00 0.00 37 1017.0
20211016173532 20 219 0.0 3.2 0.00 0.00 0.00 37 1017.0
20211016173432 20 219 0.0 3.2 0.00 0.00 0.00 38 1017.0
20211016173332 20 217 0.0 3.2 0.00 0.00 0.00 38 1017.0
20211016173232 20 218 0.0 3.2 0.00 0.00 0.00 37 1017.0
20211016173107 20 195 0.0 3.2 0.00 0.00 0.00 38 1016.9
20211016173027 20 193 0.0 3.2 0.00 0.00 0.00 38 1017.0
20211016172928 20 174 0.0 1.6 0.00 0.00 0.00 38 1017.0
20211016172828 19 150 0.0 1.6 0.00 0.00 0.00 38 1017.0
20211016172728 20 333 0.0 1.6 0.00 0.00 0.00 38 1017.0
20211016172628 20 333 0.0 1.6 0.00 0.00 0.00 38 1017.0
20211016172606 20 335 0.0 1.6 0.00 0.00 0.00 38 1017.0
20211016172527 20 97 0.0 1.6 0.00 0.00 0.00 38 1017.0
20211016172427 19 109 0.0 3.2 0.00 0.00 0.00 39 1017.0
20211016172327 19 108 0.0 3.2 0.00 0.00 0.00 40 1017.0
20211016172228 19 109 0.0 3.2 0.00 0.00 0.00 40 1017.0
20211016172109 19 109 0.0 3.2 0.00 0.00 0.00 38 1017.1
20211016172027 19 195 0.0 3.2 0.00 0.00 0.00 38 1017.1
20211016171927 18 197 0.0 3.2 0.00 0.00 0.00 38 1017.1
20211016171829 18 260 1.6 3.2 0.00 0.00 0.00 39 1017.0
20211016171728 18 316 1.6 3.2 0.00 0.00 0.00 38 1017.1
20211016171628 18 316 1.6 3.2 0.00 0.00 0.00 38 1017.1
20211016171601 18 314 1.6 3.2 0.00 0.00 0.00 38 1017.1
20211016171528 18 315 1.6 3.2 0.00 0.00 0.00 38 1017.0
20211016171428 18 316 1.6 3.2 0.00 0.00 0.00 40 1017.1
20211016171329 18 316 1.6 3.2 0.00 0.00 0.00 39 1017.1
20211016171228 18 314 1.6 3.2 0.00 0.00 0.00 39 1017.1
20211016171124 18 316 1.6 3.2 0.00 0.00 0.00 40 1017.1
20211016171101 18 316 1.6 3.2 0.00 0.00 0.00 40 1017.1
20211016171026 18 316 1.6 3.2 0.00 0.00 0.00 40 1017.1
20211016170924 18 316 0.0 3.2 0.00 0.00 0.00 40 1017.1
20211016170824 18 316 0.0 3.2 0.00 0.00 0.00 41 1017.1
20211016170725 18 316 0.0 3.2 0.00 0.00 0.00 42 1017.0
20211016170625 18 316 0.0 3.2 0.00 0.00 0.00 41 1017.0
20211016170601 18 316 0.0 3.2 0.00 0.00 0.00 41 1017.0
20211016170526 18 316 0.0 3.2 0.00 0.00 0.00 42 1017.0
20211016170425 18 316 0.0 3.2 0.00 0.00 0.00 41 1017.1
20211016170324 18 316 0.0 3.2 0.00 0.00 0.00 41 1017.0
20211016170224 18 316 0.0 3.2 0.00 0.00 0.00 40 1017.0
20211016170124 18 332 0.0 3.2 0.00 0.00 0.00 42 1017.1
20211016170108 18 332 0.0 3.2 0.00 0.00 0.00 42 1017.1
20211016170030 18 335 0.0 1.6 0.00 0.00 0.00 42 1017.1
20211016165924 18 336 0.0 1.6 0.00 0.00 0.00 43 1017.1
20211016165824 18 336 0.0 1.6 0.00 0.00 0.00 43 1017.1
20211016165723 18 336 0.0 1.6 0.00 0.00 0.00 44 1017.1
20211016165624 18 335 0.0 1.6 0.00 0.00 0.00 44 1017.1
20211016165601 18 336 0.0 1.6 0.00 0.00 0.00 44 1017.1
20211016165524 18 336 0.0 1.6 0.00 0.00 0.00 44 1017.1
20211016165425 18 336 0.0 1.6 0.00 0.00 0.00 43 1017.1
20211016165324 17 336 0.0 1.6 0.00 0.00 0.00 43 1017.1
20211016165220 17 335 0.0 1.6 0.00 0.00 0.00 44 1017.1
20211016165120 17 336 0.0 1.6 0.00 0.00 0.00 44 1017.1
20211016165101 17 336 0.0 1.6 0.00 0.00 0.00 43 1017.1
20211016165020 17 336 0.0 1.6 0.00 0.00 0.00 43 1017.1
20211016164919 17 336 0.0 1.6 0.00 0.00 0.00 45 1017.1
20211016164820 17 335 0.0 1.6 0.00 0.00 0.00 45 1017.1
20211016164720 17 335 0.0 1.6 0.00 0.00 0.00 46 1017.1
20211016164621 17 337 0.0 1.6 0.00 0.00 0.00 45 1017.1
20211016164601 17 337 0.0 1.6 0.00 0.00 0.00 45 1017.1
20211016164524 17 338 0.0 1.6 0.00 0.00 0.00 45 1017.1
20211016164419 17 338 0.0 1.6 0.00 0.00 0.00 44 1017.1
20211016164319 17 337 0.0 1.6 0.00 0.00 0.00 44 1017.1
20211016164221 17 338 0.0 1.6 0.00 0.00 0.00 45 1017.1
20211016164121 17 45 0.0 1.6 0.00 0.00 0.00 45 1017.2
20211016164101 17 46 0.0 1.6 0.00 0.00 0.00 45 1017.2
20211016164023 17 46 0.0 1.6 0.00 0.00 0.00 47 1017.1
20211016163920 17 45 0.0 1.6 0.00 0.00 0.00 46 1017.2
20211016163820 17 45 0.0 1.6 0.00 0.00 0.00 47 1017.1
20211016163721 17 71 0.0 1.6 0.00 0.00 0.00 47 1017.2
20211016163620 17 70 0.0 1.6 0.00 0.00 0.00 47 1017.1
20211016163601 17 70 0.0 1.6 0.00 0.00 0.00 47 1017.1
20211016163519 16 71 0.0 1.6 0.00 0.00 0.00 47 1017.2
20211016163420 16 70 0.0 1.6 0.00 0.00 0.00 46 1017.2
20211016163316 16 11 0.0 3.2 0.00 0.00 0.00 47 1017.1
20211016163215 16 11 0.0 3.2 0.00 0.00 0.00 47 1017.1
20211016163115 16 11 0.0 3.2 0.00 0.00 0.00 49 1017.1
20211016163057 16 11 0.0 3.2 0.00 0.00 0.00 49 1017.1
20211016163021 16 11 0.0 3.2 0.00 0.00 0.00 49 1017.2
20211016162916 16 11 0.0 3.2 0.00 0.00 0.00 49 1017.2
20211016162815 16 11 0.0 3.2 0.00 0.00 0.00 50 1017.2
20211016162715 16 11 0.0 3.2 0.00 0.00 0.00 48 1017.2
20211016162616 16 11 0.0 3.2 0.00 0.00 0.00 50 1017.2
20211016162557 16 11 0.0 3.2 0.00 0.00 0.00 50 1017.2
20211016162515 16 11 0.0 3.2 0.00 0.00 0.00 49 1017.2
20211016162416 16 11 0.0 3.2 0.00 0.00 0.00 50 1017.2
20211016162316 16 261 0.0 0.0 0.00 0.00 0.00 52 1017.2
20211016162216 15 262 0.0 0.0 0.00 0.00 0.00 50 1017.3
20211016162116 15 262 0.0 0.0 0.00 0.00 0.00 50 1017.3
20211016162057 15 262 0.0 0.0 0.00 0.00 0.00 50 1017.3
20211016162016 15 262 0.0 0.0 0.00 0.00 0.00 50 1017.3
20211016161915 15 262 0.0 0.0 0.00 0.00 0.00 50 1017.3
20211016161818 15 230 0.0 0.0 0.00 0.00 0.00 51 1017.3
20211016161716 15 229 0.0 0.0 0.00 0.00 0.00 51 1017.3
20211016161615 15 230 0.0 0.0 0.00 0.00 0.00 51 1017.3
20211016161556 15 229 0.0 0.0 0.00 0.00 0.00 51 1017.3
20211016161516 15 229 0.0 0.0 0.00 0.00 0.00 51 1017.3
20211016161419 15 229 0.0 0.0 0.00 0.00 0.00 52 1017.3
20211016161312 15 229 0.0 0.0 0.00 0.00 0.00 52 1017.3
20211016161212 15 230 0.0 0.0 0.00 0.00 0.00 52 1017.3
20211016161112 15 229 0.0 0.0 0.00 0.00 0.00 53 1017.4
20211016161057 15 229 0.0 0.0 0.00 0.00 0.00 53 1017.4
20211016161012 15 229 0.0 0.0 0.00 0.00 0.00 53 1017.4
20211016160911 15 230 0.0 0.0 0.00 0.00 0.00 53 1017.4
20211016160812 15 229 0.0 1.6 0.00 0.00 0.00 53 1017.4